| time (UTC) | temp C | wind direction | speed KPH | gust KPH | rain 1hr cm | rain 24hr cm | rain mn cm | humidity % | barometer mb |
| 20260506124618 | 8 | 231 | 1.6 | 8.0 | 0.00 | 0.00 | 0.00 | 59 | 1017.9 |
| 20260506124513 | 9 | 231 | 1.6 | 8.0 | 0.00 | 0.00 | 0.00 | 58 | 1017.9 |
| 20260506124425 | 9 | 231 | 1.6 | 8.0 | 0.00 | 0.00 | 0.00 | 59 | 1017.8 |
| 20260506124315 | 9 | 231 | 1.6 | 8.0 | 0.00 | 0.00 | 0.00 | 59 | 1017.9 |
| 20260506124211 | 9 | 223 | 1.6 | 8.0 | 0.00 | 0.00 | 0.00 | 58 | 1017.8 |
| 20260506124124 | 9 | 185 | 3.2 | 8.0 | 0.00 | 0.00 | 0.00 | 58 | 1017.8 |
| 20260506124017 | 9 | 240 | 3.2 | 8.0 | 0.00 | 0.00 | 0.00 | 58 | 1017.8 |
| 20260506123943 | 9 | 228 | 1.6 | 6.4 | 0.00 | 0.00 | 0.00 | 58 | 1017.8 |
| 20260506123835 | 9 | 156 | 0.0 | 6.4 | 0.00 | 0.00 | 0.00 | 57 | 1017.8 |
| 20260506123715 | 10 | 156 | 0.0 | 6.4 | 0.00 | 0.00 | 0.00 | 57 | 1017.8 |
| 20260506123617 | 10 | 156 | 0.0 | 6.4 | 0.00 | 0.00 | 0.00 | 56 | 1017.7 |
| 20260506123531 | 10 | 156 | 1.6 | 6.4 | 0.00 | 0.00 | 0.00 | 56 | 1017.7 |
| 20260506123423 | 10 | 156 | 3.2 | 6.4 | 0.00 | 0.00 | 0.00 | 55 | 1017.7 |
| 20260506123309 | 10 | 156 | 3.2 | 6.4 | 0.00 | 0.00 | 0.00 | 55 | 1017.7 |
| 20260506123214 | 10 | 145 | 4.8 | 6.4 | 0.00 | 0.00 | 0.00 | 55 | 1017.6 |
| 20260506123127 | 10 | 117 | 4.8 | 6.4 | 0.00 | 0.00 | 0.00 | 55 | 1017.6 |
| 20260506123006 | 10 | 136 | 4.8 | 6.4 | 0.00 | 0.00 | 0.00 | 55 | 1017.6 |
| 20260506122932 | 10 | 120 | 4.8 | 6.4 | 0.00 | 0.00 | 0.00 | 55 | 1017.5 |
| 20260506122824 | 10 | 132 | 3.2 | 6.4 | 0.00 | 0.00 | 0.00 | 56 | 1017.6 |
| 20260506122709 | 10 | 131 | 3.2 | 6.4 | 0.00 | 0.00 | 0.00 | 55 | 1017.5 |
| 20260506122645 | 10 | 131 | 3.2 | 6.4 | 0.00 | 0.00 | 0.00 | 56 | 1017.5 |
| 20260506122526 | 10 | 135 | 3.2 | 6.4 | 0.00 | 0.00 | 0.00 | 55 | 1017.5 |
| 20260506122415 | 10 | 131 | 3.2 | 4.8 | 0.00 | 0.00 | 0.00 | 55 | 1017.5 |
| 20260506122321 | 10 | 118 | 3.2 | 4.8 | 0.00 | 0.00 | 0.00 | 55 | 1017.5 |
| 20260506122207 | 9 | 118 | 1.6 | 4.8 | 0.00 | 0.00 | 0.00 | 55 | 1017.5 |
| 20260506122129 | 9 | 101 | 1.6 | 4.8 | 0.00 | 0.00 | 0.00 | 55 | 1017.5 |
| 20260506122023 | 9 | 284 | 0.0 | 1.6 | 0.00 | 0.00 | 0.00 | 54 | 1017.4 |
| 20260506121905 | 9 | 283 | 0.0 | 0.0 | 0.00 | 0.00 | 0.00 | 54 | 1017.5 |
| 20260506121810 | 9 | 284 | 0.0 | 0.0 | 0.00 | 0.00 | 0.00 | 55 | 1017.5 |
| 20260506121714 | 9 | 283 | 0.0 | 0.0 | 0.00 | 0.00 | 0.00 | 53 | 1017.5 |
| 20260506121619 | 9 | 284 | 0.0 | 0.0 | 0.00 | 0.00 | 0.00 | 52 | 1017.5 |
| 20260506121541 | 9 | 283 | 0.0 | 0.0 | 0.00 | 0.00 | 0.00 | 53 | 1017.4 |
| 20260506121426 | 9 | 283 | 0.0 | 0.0 | 0.00 | 0.00 | 0.00 | 53 | 1017.3 |
| 20260506121318 | 9 | 284 | 0.0 | 0.0 | 0.00 | 0.00 | 0.00 | 54 | 1017.3 |
| 20260506121207 | 9 | 284 | 0.0 | 0.0 | 0.00 | 0.00 | 0.00 | 54 | 1017.3 |
| 20260506121139 | 9 | 284 | 0.0 | 0.0 | 0.00 | 0.00 | 0.00 | 54 | 1017.3 |
| 20260506121014 | 10 | 284 | 0.0 | 3.2 | 0.00 | 0.00 | 0.00 | 54 | 1017.3 |
| 20260506120920 | 10 | 284 | 0.0 | 4.8 | 0.00 | 0.00 | 0.00 | 54 | 1017.2 |
| 20260506120805 | 10 | 284 | 0.0 | 4.8 | 0.00 | 0.00 | 0.00 | 54 | 1017.2 |
| 20260506120705 | 10 | 283 | 0.0 | 4.8 | 0.00 | 0.00 | 0.00 | 54 | 1017.2 |
| 20260506120616 | 10 | 283 | 0.0 | 4.8 | 0.00 | 0.00 | 0.00 | 54 | 1017.2 |
| 20260506120510 | 10 | 284 | 0.0 | 4.8 | 0.00 | 0.00 | 0.00 | 55 | 1017.2 |
| 20260506120443 | 10 | 284 | 0.0 | 4.8 | 0.00 | 0.00 | 0.00 | 55 | 1017.2 |
| 20260506120328 | 10 | 284 | 1.6 | 4.8 | 0.00 | 0.00 | 0.00 | 54 | 1017.2 |
| 20260506120220 | 10 | 283 | 3.2 | 4.8 | 0.00 | 0.00 | 0.00 | 54 | 1017.2 |
| 20260506120135 | 10 | 284 | 3.2 | 4.8 | 0.00 | 0.00 | 0.00 | 54 | 1017.2 |
| 20260506120013 | 10 | 284 | 3.2 | 4.8 | 0.00 | 0.00 | 0.00 | 53 | 1017.1 |
| 20260506115926 | 10 | 283 | 3.2 | 4.8 | 0.00 | 0.00 | 0.00 | 53 | 1017.1 |
| 20260506115805 | 10 | 283 | 1.6 | 4.8 | 0.00 | 0.00 | 0.00 | 53 | 1017.1 |
| 20260506115728 | 10 | 284 | 0.0 | 3.2 | 0.00 | 0.00 | 0.00 | 53 | 1017.1 |
| 20260506115639 | 10 | 284 | 0.0 | 3.2 | 0.00 | 0.00 | 0.00 | 53 | 1017.2 |
| 20260506115552 | 10 | 270 | 0.0 | 3.2 | 0.00 | 0.00 | 0.00 | 53 | 1017.1 |
| 20260506115420 | 10 | 270 | 0.0 | 3.2 | 0.00 | 0.00 | 0.00 | 54 | 1017.1 |
| 20260506115326 | 10 | 270 | 1.6 | 4.8 | 0.00 | 0.00 | 0.00 | 53 | 1017.1 |
| 20260506115238 | 10 | 270 | 1.6 | 4.8 | 0.00 | 0.00 | 0.00 | 53 | 1017.0 |
| 20260506115133 | 10 | 270 | 0.0 | 4.8 | 0.00 | 0.00 | 0.00 | 52 | 1017.1 |
| 20260506115007 | 10 | 128 | 1.6 | 6.4 | 0.00 | 0.00 | 0.00 | 52 | 1017.0 |
| 20260506114913 | 10 | 128 | 1.6 | 9.7 | 0.00 | 0.00 | 0.00 | 53 | 1017.0 |
| 20260506114826 | 10 | 128 | 1.6 | 9.7 | 0.00 | 0.00 | 0.00 | 53 | 1017.0 |
| 20260506114706 | 10 | 128 | 3.2 | 9.7 | 0.00 | 0.00 | 0.00 | 53 | 1017.0 |
| 20260506114638 | 10 | 128 | 3.2 | 9.7 | 0.00 | 0.00 | 0.00 | 53 | 1017.0 |
| 20260506114505 | 10 | 128 | 4.8 | 12.9 | 0.00 | 0.00 | 0.00 | 53 | 1017.0 |
| 20260506114419 | 10 | 128 | 4.8 | 12.9 | 0.00 | 0.00 | 0.00 | 53 | 1017.0 |
| 20260506114304 | 10 | 128 | 4.8 | 14.5 | 0.00 | 0.00 | 0.00 | 53 | 1016.9 |
| 20260506114204 | 10 | 128 | 4.8 | 14.5 | 0.00 | 0.00 | 0.00 | 53 | 1016.9 |
| 20260506114116 | 10 | 120 | 4.8 | 14.5 | 0.00 | 0.00 | 0.00 | 53 | 1016.8 |
| 20260506114011 | 10 | 123 | 4.8 | 14.5 | 0.00 | 0.00 | 0.00 | 53 | 1016.8 |
| 20260506113916 | 10 | 125 | 6.4 | 14.5 | 0.00 | 0.00 | 0.00 | 53 | 1016.8 |
| 20260506113829 | 10 | 127 | 8.0 | 14.5 | 0.00 | 0.00 | 0.00 | 52 | 1016.8 |
| 20260506113729 | 10 | 136 | 8.0 | 14.5 | 0.00 | 0.00 | 0.00 | 52 | 1016.9 |
| 20260506113640 | 10 | 149 | 9.7 | 14.5 | 0.00 | 0.00 | 0.00 | 52 | 1016.9 |
| 20260506113514 | 10 | 128 | 8.0 | 14.5 | 0.00 | 0.00 | 0.00 | 53 | 1016.8 |
| 20260506113440 | 10 | 125 | 8.0 | 14.5 | 0.00 | 0.00 | 0.00 | 53 | 1016.8 |
| 20260506113304 | 10 | 100 | 8.0 | 12.9 | 0.00 | 0.00 | 0.00 | 53 | 1016.8 |
| 20260506113239 | 10 | 122 | 8.0 | 12.9 | 0.00 | 0.00 | 0.00 | 53 | 1016.8 |
| 20260506113201 | 10 | 111 | 6.4 | 12.9 | 0.00 | 0.00 | 0.00 | 54 | 1016.8 |
| 20260506113018 | 10 | 102 | 6.4 | 12.9 | 0.00 | 0.00 | 0.00 | 54 | 1016.8 |
| 20260506112924 | 10 | 121 | 6.4 | 12.9 | 0.00 | 0.00 | 0.00 | 54 | 1016.8 |
| 20260506112809 | 10 | 113 | 6.4 | 14.5 | 0.00 | 0.00 | 0.00 | 54 | 1016.8 |
| 20260506112734 | 10 | 102 | 6.4 | 14.5 | 0.00 | 0.00 | 0.00 | 54 | 1016.9 |
| 20260506112638 | 10 | 104 | 6.4 | 14.5 | 0.00 | 0.00 | 0.00 | 54 | 1016.8 |
| 20260506112532 | 10 | 125 | 4.8 | 14.5 | 0.00 | 0.00 | 0.00 | 55 | 1016.8 |
| 20260506112421 | 10 | 100 | 6.4 | 14.5 | 0.00 | 0.00 | 0.00 | 54 | 1016.8 |
| 20260506112306 | 10 | 116 | 8.0 | 14.5 | 0.00 | 0.00 | 0.00 | 54 | 1016.8 |
| 20260506112212 | 10 | 110 | 8.0 | 14.5 | 0.00 | 0.00 | 0.00 | 55 | 1016.9 |
| 20260506112135 | 10 | 100 | 8.0 | 14.5 | 0.00 | 0.00 | 0.00 | 54 | 1016.8 |
| 20260506111819 | 10 | 112 | 4.8 | 8.0 | 0.00 | 0.00 | 0.00 | 56 | 1016.8 |
| 20260506111705 | 10 | 127 | 4.8 | 11.3 | 0.00 | 0.00 | 0.00 | 55 | 1016.9 |
| 20260506111649 | 10 | 117 | 4.8 | 11.3 | 0.00 | 0.00 | 0.00 | 56 | 1016.9 |
| 20260506111522 | 10 | 113 | 4.8 | 11.3 | 0.00 | 0.00 | 0.00 | 56 | 1016.9 |
| 20260506111435 | 10 | 117 | 4.8 | 11.3 | 0.00 | 0.00 | 0.00 | 55 | 1016.9 |
| 20260506111313 | 10 | 136 | 4.8 | 11.3 | 0.00 | 0.00 | 0.00 | 55 | 1016.9 |
| 20260506111237 | 10 | 133 | 4.8 | 11.3 | 0.00 | 0.00 | 0.00 | 55 | 1016.9 |
| 20260506111207 | 10 | 133 | 4.8 | 11.3 | 0.00 | 0.00 | 0.00 | 55 | 1016.9 |
| 20260506111151 | 10 | 123 | 4.8 | 11.3 | 0.00 | 0.00 | 0.00 | 55 | 1016.9 |
| 20260506111008 | 10 | 131 | 6.4 | 11.3 | 0.00 | 0.00 | 0.00 | 55 | 1016.9 |
| 20260506110942 | 10 | 122 | 6.4 | 11.3 | 0.00 | 0.00 | 0.00 | 54 | 1016.8 |
| 20260506110807 | 10 | 129 | 4.8 | 8.0 | 0.00 | 0.00 | 0.00 | 55 | 1016.9 |
| 20260506110733 | 10 | 128 | 4.8 | 8.0 | 0.00 | 0.00 | 0.00 | 55 | 1016.9 |
| 20260506110634 | 10 | 120 | 4.8 | 8.0 | 0.00 | 0.00 | 0.00 | 55 | 1016.9 |
| 20260506110529 | 10 | 130 | 4.8 | 11.3 | 0.00 | 0.00 | 0.00 | 55 | 1016.8 |
| 20260506110409 | 10 | 131 | 4.8 | 11.3 | 0.00 | 0.00 | 0.00 | 55 | 1016.8 |
| 20260506110322 | 10 | 116 | 4.8 | 11.3 | 0.00 | 0.00 | 0.00 | 56 | 1016.8 |
| 20260506110207 | 10 | 111 | 4.8 | 11.3 | 0.00 | 0.00 | 0.00 | 56 | 1016.7 |
| 20260506110125 | 10 | 119 | 4.8 | 11.3 | 0.00 | 0.00 | 0.00 | 56 | 1016.8 |
| 20260506110019 | 10 | 112 | 4.8 | 11.3 | 0.00 | 0.00 | 0.00 | 55 | 1016.8 |
| 20260506105931 | 10 | 126 | 4.8 | 11.3 | 0.00 | 0.00 | 0.00 | 55 | 1016.8 |
| 20260506105821 | 10 | 113 | 6.4 | 11.3 | 0.00 | 0.00 | 0.00 | 55 | 1016.8 |
| 20260506105726 | 10 | 113 | 6.4 | 11.3 | 0.00 | 0.00 | 0.00 | 54 | 1016.8 |
| 20260506105629 | 10 | 124 | 6.4 | 11.3 | 0.00 | 0.00 | 0.00 | 55 | 1016.8 |
| 20260506105524 | 10 | 121 | 4.8 | 11.3 | 0.00 | 0.00 | 0.00 | 56 | 1016.8 |
| 20260506105408 | 10 | 112 | 4.8 | 9.7 | 0.00 | 0.00 | 0.00 | 56 | 1016.7 |
| 20260506105314 | 10 | 123 | 4.8 | 9.7 | 0.00 | 0.00 | 0.00 | 56 | 1016.7 |
| 20260506105214 | 10 | 128 | 4.8 | 9.7 | 0.00 | 0.00 | 0.00 | 57 | 1016.7 |
| 20260506105125 | 10 | 114 | 4.8 | 9.7 | 0.00 | 0.00 | 0.00 | 57 | 1016.7 |
| 20260506105020 | 10 | 113 | 4.8 | 9.7 | 0.00 | 0.00 | 0.00 | 57 | 1016.7 |
| 20260506104911 | 10 | 122 | 4.8 | 9.7 | 0.00 | 0.00 | 0.00 | 57 | 1016.7 |
| 20260506104817 | 10 | 110 | 4.8 | 8.0 | 0.00 | 0.00 | 0.00 | 57 | 1016.7 |
| 20260506104710 | 10 | 108 | 4.8 | 9.7 | 0.00 | 0.00 | 0.00 | 57 | 1016.7 |
| 20260506104626 | 10 | 132 | 4.8 | 9.7 | 0.00 | 0.00 | 0.00 | 57 | 1016.7 |
| 20260506104520 | 10 | 123 | 4.8 | 9.7 | 0.00 | 0.00 | 0.00 | 58 | 1016.7 |
| 20260506104406 | 10 | 97 | 3.2 | 9.7 | 0.00 | 0.00 | 0.00 | 59 | 1016.7 |
| 20260506104340 | 10 | 113 | 3.2 | 6.4 | 0.00 | 0.00 | 0.00 | 58 | 1016.7 |
| 20260506104234 | 10 | 108 | 3.2 | 6.4 | 0.00 | 0.00 | 0.00 | 58 | 1016.7 |
| 20260506104125 | 10 | 111 | 3.2 | 11.3 | 0.00 | 0.00 | 0.00 | 57 | 1016.7 |
| 20260506104019 | 10 | 120 | 3.2 | 11.3 | 0.00 | 0.00 | 0.00 | 57 | 1016.7 |
| 20260506103908 | 10 | 122 | 4.8 | 11.3 | 0.00 | 0.00 | 0.00 | 56 | 1016.7 |
| 20260506103818 | 10 | 122 | 4.8 | 11.3 | 0.00 | 0.00 | 0.00 | 56 | 1016.7 |
| 20260506103714 | 10 | 129 | 4.8 | 11.3 | 0.00 | 0.00 | 0.00 | 57 | 1016.7 |
| 20260506103626 | 10 | 118 | 4.8 | 11.3 | 0.00 | 0.00 | 0.00 | 57 | 1016.7 |
| 20260506103541 | 10 | 110 | 4.8 | 11.3 | 0.00 | 0.00 | 0.00 | 57 | 1016.7 |
| 20260506103409 | 10 | 108 | 6.4 | 11.3 | 0.00 | 0.00 | 0.00 | 57 | 1016.7 |
| 20260506103319 | 10 | 102 | 8.0 | 11.3 | 0.00 | 0.00 | 0.00 | 56 | 1016.7 |
| 20260506103215 | 10 | 106 | 8.0 | 11.3 | 0.00 | 0.00 | 0.00 | 56 | 1016.7 |
| 20260506103148 | 10 | 122 | 8.0 | 11.3 | 0.00 | 0.00 | 0.00 | 56 | 1016.7 |
| 20260506103033 | 10 | 114 | 6.4 | 11.3 | 0.00 | 0.00 | 0.00 | 57 | 1016.7 |
| 20260506102918 | 10 | 122 | 6.4 | 11.3 | 0.00 | 0.00 | 0.00 | 58 | 1016.6 |
| 20260506102831 | 11 | 110 | 6.4 | 16.1 | 0.00 | 0.00 | 0.00 | 58 | 1016.6 |
| 20260506102730 | 11 | 108 | 6.4 | 16.1 | 0.00 | 0.00 | 0.00 | 58 | 1016.6 |
| 20260506102621 | 11 | 128 | 8.0 | 16.1 | 0.00 | 0.00 | 0.00 | 58 | 1016.6 |
| 20260506102516 | 11 | 121 | 6.4 | 16.1 | 0.00 | 0.00 | 0.00 | 57 | 1016.5 |
| 20260506102421 | 11 | 130 | 6.4 | 16.1 | 0.00 | 0.00 | 0.00 | 57 | 1016.5 |
| 20260506102334 | 11 | 113 | 6.4 | 16.1 | 0.00 | 0.00 | 0.00 | 57 | 1016.5 |
| 20260506102219 | 11 | 110 | 8.0 | 16.1 | 0.00 | 0.00 | 0.00 | 57 | 1016.6 |
| 20260506102136 | 11 | 110 | 8.0 | 16.1 | 0.00 | 0.00 | 0.00 | 56 | 1016.6 |
| 20260506102011 | 11 | 121 | 9.7 | 16.1 | 0.00 | 0.00 | 0.00 | 56 | 1016.6 |
| 20260506101917 | 11 | 133 | 8.0 | 12.9 | 0.00 | 0.00 | 0.00 | 56 | 1016.5 |
| 20260506101823 | 11 | 159 | 6.4 | 12.9 | 0.00 | 0.00 | 0.00 | 56 | 1016.5 |
| 20260506101709 | 11 | 122 | 6.4 | 14.5 | 0.00 | 0.00 | 0.00 | 56 | 1016.6 |
| 20260506101630 | 11 | 106 | 8.0 | 14.5 | 0.00 | 0.00 | 0.00 | 56 | 1016.6 |
| 20260506101509 | 11 | 110 | 8.0 | 14.5 | 0.00 | 0.00 | 0.00 | 56 | 1016.5 |
| 20260506101414 | 11 | 108 | 8.0 | 14.5 | 0.00 | 0.00 | 0.00 | 56 | 1016.5 |
| 20260506101327 | 11 | 112 | 6.4 | 16.1 | 0.00 | 0.00 | 0.00 | 57 | 1016.5 |
| 20260506101213 | 11 | 103 | 4.8 | 22.5 | 0.00 | 0.00 | 0.00 | 58 | 1016.5 |
| 20260506101129 | 11 | 104 | 6.4 | 24.1 | 0.00 | 0.00 | 0.00 | 58 | 1016.5 |
| 20260506101007 | 11 | 98 | 9.7 | 24.1 | 0.00 | 0.00 | 0.00 | 58 | 1016.5 |
| 20260506100940 | 11 | 99 | 9.7 | 24.1 | 0.00 | 0.00 | 0.00 | 60 | 1016.5 |
| 20260506100816 | 11 | 93 | 8.0 | 24.1 | 0.00 | 0.00 | 0.00 | 61 | 1016.5 |
| 20260506100712 | 11 | 90 | 9.7 | 24.1 | 0.00 | 0.00 | 0.00 | 63 | 1016.5 |
| 20260506100623 | 11 | 69 | 11.3 | 24.1 | 0.00 | 0.00 | 0.00 | 64 | 1016.5 |
| 20260506100545 | 11 | 87 | 12.9 | 24.1 | 0.00 | 0.00 | 0.00 | 64 | 1016.5 |
| 20260506100430 | 11 | 101 | 12.9 | 24.1 | 0.00 | 0.00 | 0.00 | 66 | 1016.5 |
| 20260506100346 | 11 | 66 | 9.7 | 22.5 | 0.00 | 0.00 | 0.00 | 67 | 1016.4 |
| 20260506100230 | 11 | 84 | 4.8 | 14.5 | 0.00 | 0.00 | 0.00 | 68 | 1016.4 |
| 20260506100132 | 11 | 73 | 3.2 | 14.5 | 0.00 | 0.00 | 0.00 | 68 | 1016.3 |
| 20260506100006 | 11 | 63 | 3.2 | 14.5 | 0.00 | 0.00 | 0.00 | 68 | 1016.2 |
| 20260506095932 | 11 | 63 | 4.8 | 14.5 | 0.00 | 0.00 | 0.00 | 68 | 1016.3 |
| 20260506095836 | 10 | 56 | 6.4 | 14.5 | 0.00 | 0.00 | 0.00 | 68 | 1016.4 |
| 20260506095705 | 11 | 78 | 6.4 | 14.5 | 0.00 | 0.00 | 0.00 | 70 | 1016.4 |
| 20260506095621 | 11 | 68 | 8.0 | 14.5 | 0.00 | 0.00 | 0.00 | 70 | 1016.5 |
| 20260506095523 | 11 | 86 | 8.0 | 14.5 | 0.00 | 0.00 | 0.00 | 70 | 1016.5 |
| 20260506095405 | 11 | 96 | 9.7 | 14.5 | 0.00 | 0.00 | 0.00 | 70 | 1016.5 |
| 20260506095312 | 11 | 81 | 8.0 | 14.5 | 0.00 | 0.00 | 0.00 | 70 | 1016.5 |
| 20260506095205 | 11 | 88 | 4.8 | 11.3 | 0.00 | 0.00 | 0.00 | 69 | 1016.4 |
| 20260506095120 | 11 | 97 | 1.6 | 6.4 | 0.00 | 0.00 | 0.00 | 69 | 1016.2 |
| 20260506095006 | 11 | 122 | 0.0 | 3.2 | 0.00 | 0.00 | 0.00 | 68 | 1016.0 |
| 20260506094939 | 11 | 122 | 0.0 | 3.2 | 0.00 | 0.00 | 0.00 | 68 | 1015.9 |
| 20260506094823 | 11 | 122 | 0.0 | 4.8 | 0.00 | 0.00 | 0.00 | 67 | 1015.9 |
| 20260506094736 | 12 | 122 | 0.0 | 4.8 | 0.00 | 0.00 | 0.00 | 67 | 1016.0 |
| 20260506094630 | 12 | 122 | 0.0 | 4.8 | 0.00 | 0.00 | 0.00 | 67 | 1015.9 |
| 20260506094509 | 12 | 122 | 0.0 | 4.8 | 0.00 | 0.00 | 0.00 | 66 | 1016.0 |
| 20260506094442 | 12 | 122 | 0.0 | 4.8 | 0.00 | 0.00 | 0.00 | 65 | 1015.9 |
| 20260506094326 | 12 | 122 | 0.0 | 4.8 | 0.00 | 0.00 | 0.00 | 65 | 1015.9 |
| 20260506094229 | 12 | 122 | 1.6 | 4.8 | 0.00 | 0.00 | 0.00 | 65 | 1015.9 |
| 20260506094140 | 12 | 122 | 1.6 | 4.8 | 0.00 | 0.00 | 0.00 | 64 | 1015.9 |
| 20260506094014 | 12 | 122 | 1.6 | 6.4 | 0.00 | 0.00 | 0.00 | 63 | 1015.8 |
| 20260506093919 | 12 | 164 | 0.0 | 6.4 | 0.00 | 0.00 | 0.00 | 63 | 1015.8 |
| 20260506093829 | 12 | 240 | 0.0 | 6.4 | 0.00 | 0.00 | 0.00 | 62 | 1015.7 |
| 20260506093733 | 12 | 240 | 0.0 | 6.4 | 0.00 | 0.00 | 0.00 | 62 | 1015.7 |
| 20260506093627 | 12 | 240 | 0.0 | 6.4 | 0.00 | 0.00 | 0.00 | 62 | 1015.8 |
| 20260506093528 | 12 | 240 | 1.6 | 6.4 | 0.00 | 0.00 | 0.00 | 62 | 1015.8 |
| 20260506093414 | 12 | 240 | 1.6 | 6.4 | 0.00 | 0.00 | 0.00 | 62 | 1015.8 |
| 20260506093320 | 12 | 241 | 3.2 | 6.4 | 0.00 | 0.00 | 0.00 | 62 | 1015.8 |
| 20260506093210 | 12 | 238 | 3.2 | 6.4 | 0.00 | 0.00 | 0.00 | 62 | 1015.8 |
| 20260506093154 | 12 | 237 | 3.2 | 6.4 | 0.00 | 0.00 | 0.00 | 62 | 1015.8 |
| 20260506093019 | 12 | 226 | 1.6 | 4.8 | 0.00 | 0.00 | 0.00 | 62 | 1015.8 |
| 20260506092924 | 12 | 251 | 0.0 | 4.8 | 0.00 | 0.00 | 0.00 | 61 | 1015.8 |
| 20260506092810 | 12 | 254 | 1.6 | 4.8 | 0.00 | 0.00 | 0.00 | 61 | 1015.9 |
| 20260506092719 | 12 | 240 | 1.6 | 4.8 | 0.00 | 0.00 | 0.00 | 61 | 1015.8 |
| 20260506092617 | 12 | 239 | 1.6 | 4.8 | 0.00 | 0.00 | 0.00 | 61 | 1015.8 |
| 20260506092540 | 12 | 239 | 1.6 | 4.8 | 0.00 | 0.00 | 0.00 | 61 | 1015.8 |
| 20260506092424 | 12 | 239 | 1.6 | 4.8 | 0.00 | 0.00 | 0.00 | 61 | 1015.8 |
| 20260506092327 | 12 | 249 | 1.6 | 4.8 | 0.00 | 0.00 | 0.00 | 61 | 1015.9 |
| 20260506092208 | 12 | 251 | 1.6 | 4.8 | 0.00 | 0.00 | 0.00 | 61 | 1015.8 |
| 20260506092142 | 12 | 241 | 1.6 | 4.8 | 0.00 | 0.00 | 0.00 | 61 | 1015.8 |
| 20260506092036 | 13 | 243 | 1.6 | 3.2 | 0.00 | 0.00 | 0.00 | 60 | 1015.8 |
| 20260506091904 | 13 | 243 | 1.6 | 3.2 | 0.00 | 0.00 | 0.00 | 61 | 1015.8 |
| 20260506091810 | 13 | 239 | 1.6 | 3.2 | 0.00 | 0.00 | 0.00 | 60 | 1015.7 |
| 20260506091705 | 13 | 237 | 1.6 | 3.2 | 0.00 | 0.00 | 0.00 | 60 | 1015.8 |
| 20260506091617 | 13 | 232 | 0.0 | 3.2 | 0.00 | 0.00 | 0.00 | 60 | 1015.8 |
| 20260506091539 | 13 | 232 | 0.0 | 3.2 | 0.00 | 0.00 | 0.00 | 60 | 1015.8 |
| 20260506091419 | 13 | 232 | 0.0 | 3.2 | 0.00 | 0.00 | 0.00 | 60 | 1015.7 |
| 20260506091305 | 13 | 232 | 0.0 | 3.2 | 0.00 | 0.00 | 0.00 | 60 | 1015.7 |
| 20260506091211 | 13 | 232 | 0.0 | 3.2 | 0.00 | 0.00 | 0.00 | 60 | 1015.7 |
| 20260506091154 | 13 | 232 | 0.0 | 3.2 | 0.00 | 0.00 | 0.00 | 60 | 1015.7 |
| 20260506091007 | 13 | 232 | 0.0 | 3.2 | 0.00 | 0.00 | 0.00 | 60 | 1015.7 |
| 20260506090913 | 13 | 232 | 0.0 | 3.2 | 0.00 | 0.00 | 0.00 | 60 | 1015.7 |
| 20260506090823 | 13 | 232 | 0.0 | 1.6 | 0.00 | 0.00 | 0.00 | 60 | 1015.6 |
| 20260506090708 | 13 | 232 | 0.0 | 1.6 | 0.00 | 0.00 | 0.00 | 61 | 1015.6 |
| 20260506090631 | 13 | 232 | 0.0 | 1.6 | 0.00 | 0.00 | 0.00 | 61 | 1015.5 |
| 20260506090506 | 12 | 232 | 0.0 | 1.6 | 0.00 | 0.00 | 0.00 | 62 | 1015.6 |
| 20260506090412 | 12 | 232 | 0.0 | 1.6 | 0.00 | 0.00 | 0.00 | 62 | 1015.6 |
| 20260506090324 | 12 | 232 | 0.0 | 1.6 | 0.00 | 0.00 | 0.00 | 62 | 1015.6 |
| 20260506090214 | 12 | 232 | 0.0 | 1.6 | 0.00 | 0.00 | 0.00 | 62 | 1015.5 |
| 20260506090130 | 12 | 232 | 0.0 | 1.6 | 0.00 | 0.00 | 0.00 | 63 | 1015.5 |
| 20260506090022 | 12 | 232 | 0.0 | 1.6 | 0.00 | 0.00 | 0.00 | 63 | 1015.5 |
| 20260506085928 | 12 | 232 | 0.0 | 1.6 | 0.00 | 0.00 | 0.00 | 63 | 1015.5 |
| 20260506085810 | 12 | 232 | 0.0 | 0.0 | 0.00 | 0.00 | 0.00 | 63 | 1015.5 |
| 20260506085710 | 12 | 232 | 0.0 | 0.0 | 0.00 | 0.00 | 0.00 | 64 | 1015.5 |
| 20260506085621 | 12 | 232 | 0.0 | 0.0 | 0.00 | 0.00 | 0.00 | 64 | 1015.5 |
| 20260506085516 | 12 | 232 | 0.0 | 0.0 | 0.00 | 0.00 | 0.00 | 64 | 1015.5 |
| 20260506085428 | 12 | 232 | 0.0 | 1.6 | 0.00 | 0.00 | 0.00 | 64 | 1015.4 |
| 20260506085311 | 12 | 232 | 0.0 | 1.6 | 0.00 | 0.00 | 0.00 | 64 | 1015.4 |
| 20260506085213 | 12 | 232 | 0.0 | 1.6 | 0.00 | 0.00 | 0.00 | 64 | 1015.3 |
| 20260506085139 | 12 | 232 | 0.0 | 1.6 | 0.00 | 0.00 | 0.00 | 64 | 1015.3 |
| 20260506085014 | 12 | 232 | 0.0 | 1.6 | 0.00 | 0.00 | 0.00 | 64 | 1015.3 |
| 20260506084920 | 12 | 232 | 0.0 | 1.6 | 0.00 | 0.00 | 0.00 | 64 | 1015.3 |
| 20260506084805 | 12 | 232 | 0.0 | 1.6 | 0.00 | 0.00 | 0.00 | 64 | 1015.3 |
| 20260506084711 | 12 | 232 | 0.0 | 4.8 | 0.00 | 0.00 | 0.00 | 64 | 1015.3 |
| 20260506084617 | 12 | 232 | 0.0 | 4.8 | 0.00 | 0.00 | 0.00 | 65 | 1015.2 |
| 20260506084512 | 12 | 232 | 0.0 | 4.8 | 0.00 | 0.00 | 0.00 | 65 | 1015.2 |
| 20260506084424 | 12 | 232 | 0.0 | 4.8 | 0.00 | 0.00 | 0.00 | 64 | 1015.2 |
| 20260506084331 | 12 | 232 | 1.6 | 4.8 | 0.00 | 0.00 | 0.00 | 64 | 1015.3 |
| 20260506084216 | 12 | 232 | 0.0 | 4.8 | 0.00 | 0.00 | 0.00 | 64 | 1015.3 |
| 20260506084129 | 12 | 232 | 1.6 | 4.8 | 0.00 | 0.00 | 0.00 | 64 | 1015.3 |
| 20260506084043 | 12 | 232 | 1.6 | 4.8 | 0.00 | 0.00 | 0.00 | 64 | 1015.2 |
| 20260506083919 | 12 | 232 | 0.0 | 4.8 | 0.00 | 0.00 | 0.00 | 64 | 1015.3 |
| 20260506083806 | 12 | 242 | 0.0 | 3.2 | 0.00 | 0.00 | 0.00 | 64 | 1015.2 |
| 20260506083710 | 12 | 241 | 0.0 | 3.2 | 0.00 | 0.00 | 0.00 | 64 | 1015.2 |
| 20260506083625 | 12 | 242 | 0.0 | 3.2 | 0.00 | 0.00 | 0.00 | 64 | 1015.2 |
| 20260506083528 | 12 | 240 | 0.0 | 3.2 | 0.00 | 0.00 | 0.00 | 63 | 1015.2 |
| 20260506083413 | 12 | 241 | 1.6 | 3.2 | 0.00 | 0.00 | 0.00 | 63 | 1015.1 |
| 20260506083309 | 12 | 241 | 1.6 | 3.2 | 0.00 | 0.00 | 0.00 | 63 | 1015.1 |
| 20260506083234 | 12 | 245 | 1.6 | 3.2 | 0.00 | 0.00 | 0.00 | 63 | 1015.1 |
| 20260506083135 | 12 | 247 | 1.6 | 3.2 | 0.00 | 0.00 | 0.00 | 63 | 1015.1 |
| 20260506083009 | 12 | 240 | 1.6 | 3.2 | 0.00 | 0.00 | 0.00 | 63 | 1015.1 |
| 20260506082935 | 12 | 241 | 1.6 | 3.2 | 0.00 | 0.00 | 0.00 | 62 | 1015.1 |
| 20260506082826 | 12 | 241 | 1.6 | 3.2 | 0.00 | 0.00 | 0.00 | 62 | 1015.1 |
| 20260506082712 | 12 | 241 | 1.6 | 3.2 | 0.00 | 0.00 | 0.00 | 62 | 1015.1 |
| 20260506082649 | 12 | 241 | 1.6 | 3.2 | 0.00 | 0.00 | 0.00 | 61 | 1015.0 |
| 20260506082530 | 12 | 241 | 1.6 | 3.2 | 0.00 | 0.00 | 0.00 | 61 | 1015.0 |
| 20260506082416 | 12 | 238 | 1.6 | 1.6 | 0.00 | 0.00 | 0.00 | 61 | 1015.0 |
| 20260506082318 | 12 | 237 | 1.6 | 1.6 | 0.00 | 0.00 | 0.00 | 61 | 1015.0 |
| 20260506082215 | 12 | 238 | 1.6 | 1.6 | 0.00 | 0.00 | 0.00 | 60 | 1014.9 |
| 20260506082117 | 13 | 237 | 1.6 | 3.2 | 0.00 | 0.00 | 0.00 | 60 | 1014.8 |
| 20260506082015 | 13 | 237 | 1.6 | 3.2 | 0.00 | 0.00 | 0.00 | 60 | 1014.8 |
| 20260506081921 | 13 | 237 | 1.6 | 3.2 | 0.00 | 0.00 | 0.00 | 59 | 1014.8 |
| 20260506081825 | 13 | 238 | 1.6 | 3.2 | 0.00 | 0.00 | 0.00 | 59 | 1014.9 |
| 20260506081711 | 13 | 238 | 0.0 | 3.2 | 0.00 | 0.00 | 0.00 | 58 | 1014.8 |
| 20260506081627 | 13 | 237 | 0.0 | 3.2 | 0.00 | 0.00 | 0.00 | 58 | 1014.8 |
| 20260506081528 | 13 | 237 | 0.0 | 3.2 | 0.00 | 0.00 | 0.00 | 57 | 1014.8 |
| 20260506081437 | 14 | 237 | 0.0 | 3.2 | 0.00 | 0.00 | 0.00 | 57 | 1014.7 |
| 20260506081329 | 14 | 237 | 0.0 | 3.2 | 0.00 | 0.00 | 0.00 | 56 | 1014.7 |
| 20260506081206 | 15 | 237 | 0.0 | 3.2 | 0.00 | 0.00 | 0.00 | 55 | 1014.7 |
| 20260506081143 | 15 | 236 | 1.6 | 3.2 | 0.00 | 0.00 | 0.00 | 55 | 1014.7 |
| 20260506081024 | 15 | 237 | 1.6 | 3.2 | 0.00 | 0.00 | 0.00 | 54 | 1014.7 |
| 20260506080909 | 15 | 237 | 1.6 | 3.2 | 0.00 | 0.00 | 0.00 | 53 | 1014.6 |
| 20260506080835 | 15 | 255 | 1.6 | 3.2 | 0.00 | 0.00 | 0.00 | 53 | 1014.6 |
| 20260506080731 | 15 | 278 | 1.6 | 1.6 | 0.00 | 0.00 | 0.00 | 52 | 1014.6 |
| 20260506080654 | 15 | 318 | 0.0 | 1.6 | 0.00 | 0.00 | 0.00 | 52 | 1014.6 |
| 20260506080507 | 16 | 318 | 0.0 | 3.2 | 0.00 | 0.00 | 0.00 | 51 | 1014.6 |
| 20260506080413 | 16 | 317 | 0.0 | 3.2 | 0.00 | 0.00 | 0.00 | 51 | 1014.6 |
| 20260506080346 | 16 | 318 | 0.0 | 3.2 | 0.00 | 0.00 | 0.00 | 51 | 1014.6 |
| 20260506080211 | 16 | 317 | 0.0 | 3.2 | 0.00 | 0.00 | 0.00 | 51 | 1014.6 |
| 20260506080130 | 16 | 318 | 0.0 | 3.2 | 0.00 | 0.00 | 0.00 | 51 | 1014.6 |
| 20260506073510 | 15 | 283 | 0.0 | 1.6 | 0.00 | 0.00 | 0.00 | 52 | 1014.4 |
| 20260506073416 | 15 | 283 | 0.0 | 1.6 | 0.00 | 0.00 | 0.00 | 52 | 1014.2 |
| 20260506073329 | 15 | 283 | 0.0 | 1.6 | 0.00 | 0.00 | 0.00 | 52 | 1014.3 |
| 20260506073210 | 15 | 283 | 0.0 | 6.4 | 0.00 | 0.00 | 0.00 | 52 | 1014.2 |
| 20260506073134 | 15 | 283 | 0.0 | 6.4 | 0.00 | 0.00 | 0.00 | 52 | 1014.2 |
| 20260506073008 | 15 | 299 | 0.0 | 6.4 | 0.00 | 0.00 | 0.00 | 52 | 1014.2 |
| 20260506072921 | 15 | 299 | 0.0 | 6.4 | 0.00 | 0.00 | 0.00 | 52 | 1014.2 |
| 20260506072806 | 15 | 299 | 0.0 | 6.4 | 0.00 | 0.00 | 0.00 | 52 | 1014.2 |
| 20260506072640 | 15 | 299 | 0.0 | 6.4 | 0.00 | 0.00 | 0.00 | 53 | 1014.2 |
| 20260506072514 | 15 | 299 | 1.6 | 6.4 | 0.00 | 0.00 | 0.00 | 53 | 1014.2 |
| 20260506072418 | 15 | 299 | 3.2 | 6.4 | 0.00 | 0.00 | 0.00 | 53 | 1014.2 |
| 20260506072306 | 15 | 281 | 1.6 | 3.2 | 0.00 | 0.00 | 0.00 | 53 | 1014.1 |
| 20260506072227 | 15 | 265 | 0.0 | 1.6 | 0.00 | 0.00 | 0.00 | 53 | 1014.1 |
| 20260506072138 | 15 | 265 | 0.0 | 1.6 | 0.00 | 0.00 | 0.00 | 53 | 1014.1 |
| 20260506072017 | 15 | 264 | 0.0 | 3.2 | 0.00 | 0.00 | 0.00 | 53 | 1014.2 |
| 20260506071922 | 15 | 263 | 0.0 | 3.2 | 0.00 | 0.00 | 0.00 | 53 | 1014.1 |
| 20260506071819 | 15 | 264 | 0.0 | 3.2 | 0.00 | 0.00 | 0.00 | 53 | 1014.1 |
| 20260506071715 | 15 | 264 | 0.0 | 3.2 | 0.00 | 0.00 | 0.00 | 53 | 1014.1 |
| 20260506071626 | 15 | 264 | 0.0 | 3.2 | 0.00 | 0.00 | 0.00 | 53 | 1014.0 |
| 20260506071548 | 15 | 264 | 0.0 | 4.8 | 0.00 | 0.00 | 0.00 | 53 | 1014.0 |
| 20260506071417 | 15 | 263 | 0.0 | 4.8 | 0.00 | 0.00 | 0.00 | 53 | 1014.0 |
| 20260506071322 | 15 | 264 | 0.0 | 4.8 | 0.00 | 0.00 | 0.00 | 53 | 1014.0 |
| 20260506071210 | 15 | 263 | 0.0 | 4.8 | 0.00 | 0.00 | 0.00 | 53 | 1014.1 |
| 20260506071118 | 15 | 233 | 0.0 | 4.8 | 0.00 | 0.00 | 0.00 | 53 | 1014.0 |
| 20260506071041 | 15 | 233 | 0.0 | 6.4 | 0.00 | 0.00 | 0.00 | 53 | 1014.0 |
| 20260506070926 | 15 | 233 | 0.0 | 6.4 | 0.00 | 0.00 | 0.00 | 53 | 1014.0 |
| 20260506070806 | 15 | 233 | 0.0 | 6.4 | 0.00 | 0.00 | 0.00 | 53 | 1014.0 |
| 20260506070712 | 15 | 233 | 1.6 | 6.4 | 0.00 | 0.00 | 0.00 | 53 | 1014.0 |
| 20260506070634 | 15 | 233 | 1.6 | 6.4 | 0.00 | 0.00 | 0.00 | 53 | 1014.0 |
| 20260506070508 | 15 | 238 | 0.0 | 6.4 | 0.00 | 0.00 | 0.00 | 53 | 1014.0 |
| 20260506070413 | 15 | 235 | 0.0 | 6.4 | 0.00 | 0.00 | 0.00 | 53 | 1014.0 |
| 20260506070326 | 15 | 235 | 1.6 | 8.0 | 0.00 | 0.00 | 0.00 | 53 | 1014.0 |
| 20260506070227 | 15 | 235 | 3.2 | 8.0 | 0.00 | 0.00 | 0.00 | 53 | 1014.0 |
| 20260506070138 | 15 | 235 | 3.2 | 8.0 | 0.00 | 0.00 | 0.00 | 53 | 1014.0 |
| 20260506062510 | 16 | 253 | 0.0 | 3.2 | 0.00 | 0.00 | 0.00 | 50 | 1013.2 |
| 20260506062442 | 16 | 253 | 0.0 | 3.2 | 0.00 | 0.00 | 0.00 | 50 | 1013.2 |
| 20260506062306 | 16 | 253 | 0.0 | 3.2 | 0.00 | 0.00 | 0.00 | 50 | 1013.2 |
| 20260506062212 | 16 | 264 | 0.0 | 4.8 | 0.00 | 0.00 | 0.00 | 50 | 1013.2 |
| 20260506062134 | 16 | 316 | 0.0 | 8.0 | 0.00 | 0.00 | 0.00 | 50 | 1013.2 |
| 20260506062012 | 16 | 316 | 0.0 | 8.0 | 0.00 | 0.00 | 0.00 | 49 | 1013.1 |
| 20260506061918 | 17 | 316 | 0.0 | 8.0 | 0.00 | 0.00 | 0.00 | 49 | 1013.1 |
| 20260506061852 | 17 | 316 | 0.0 | 8.0 | 0.00 | 0.00 | 0.00 | 49 | 1013.1 |
| 20260506061728 | 17 | 316 | 0.0 | 8.0 | 0.00 | 0.00 | 0.00 | 49 | 1013.1 |
| 20260506061620 | 17 | 316 | 0.0 | 8.0 | 0.00 | 0.00 | 0.00 | 49 | 1013.1 |
| 20260506061513 | 17 | 316 | 1.6 | 11.3 | 0.00 | 0.00 | 0.00 | 48 | 1013.1 |
| 20260506061419 | 17 | 320 | 1.6 | 11.3 | 0.00 | 0.00 | 0.00 | 48 | 1013.1 |
| 20260506061337 | 17 | 305 | 3.2 | 11.3 | 0.00 | 0.00 | 0.00 | 48 | 1013.1 |
| 20260506061211 | 17 | 299 | 3.2 | 11.3 | 0.00 | 0.00 | 0.00 | 48 | 1013.0 |
| 20260506061122 | 17 | 307 | 3.2 | 11.3 | 0.00 | 0.00 | 0.00 | 48 | 1013.1 |
| 20260506061017 | 17 | 307 | 3.2 | 11.3 | 0.00 | 0.00 | 0.00 | 48 | 1012.9 |
| 20260506060929 | 17 | 297 | 3.2 | 11.3 | 0.00 | 0.00 | 0.00 | 48 | 1012.9 |
| 20260506060815 | 17 | 303 | 6.4 | 11.3 | 0.00 | 0.00 | 0.00 | 48 | 1012.9 |
| 20260506060704 | 17 | 290 | 6.4 | 11.3 | 0.00 | 0.00 | 0.00 | 48 | 1012.9 |
| 20260506060620 | 17 | 312 | 4.8 | 9.7 | 0.00 | 0.00 | 0.00 | 49 | 1012.8 |
| 20260506060522 | 17 | 283 | 4.8 | 9.7 | 0.00 | 0.00 | 0.00 | 49 | 1012.8 |
| 20260506060408 | 17 | 324 | 4.8 | 8.0 | 0.00 | 0.00 | 0.00 | 49 | 1012.8 |
| 20260506060314 | 17 | 297 | 4.8 | 8.0 | 0.00 | 0.00 | 0.00 | 49 | 1012.7 |
| 20260506060213 | 17 | 314 | 4.8 | 8.0 | 0.00 | 0.00 | 0.00 | 49 | 1012.7 |
| 20260506060124 | 17 | 299 | 4.8 | 9.7 | 0.00 | 0.00 | 0.00 | 49 | 1012.7 |
| 20260506051325 | 18 | 307 | 9.7 | 17.7 | 0.00 | 0.00 | 0.00 | 45 | 1012.1 |
| 20260506051209 | 18 | 308 | 9.7 | 17.7 | 0.00 | 0.00 | 0.00 | 45 | 1012.0 |
| 20260506051126 | 18 | 291 | 9.7 | 17.7 | 0.00 | 0.00 | 0.00 | 45 | 1012.1 |
| 20260506051027 | 18 | 298 | 11.3 | 17.7 | 0.00 | 0.00 | 0.00 | 45 | 1012.0 |
| 20260506050913 | 18 | 308 | 11.3 | 17.7 | 0.00 | 0.00 | 0.00 | 45 | 1012.1 |
| 20260506050823 | 18 | 312 | 11.3 | 17.7 | 0.00 | 0.00 | 0.00 | 45 | 1012.0 |
| 20260506050709 | 18 | 314 | 11.3 | 17.7 | 0.00 | 0.00 | 0.00 | 45 | 1012.1 |
| 20260506050630 | 18 | 297 | 11.3 | 17.7 | 0.00 | 0.00 | 0.00 | 46 | 1012.0 |
| 20260506050524 | 18 | 313 | 11.3 | 17.7 | 0.00 | 0.00 | 0.00 | 46 | 1012.0 |
| 20260506050410 | 18 | 310 | 9.7 | 16.1 | 0.00 | 0.00 | 0.00 | 46 | 1012.0 |
| 20260506050342 | 18 | 293 | 9.7 | 14.5 | 0.00 | 0.00 | 0.00 | 46 | 1012.0 |
| 20260506050231 | 18 | 305 | 9.7 | 14.5 | 0.00 | 0.00 | 0.00 | 46 | 1012.0 |
| 20260506050132 | 18 | 292 | 9.7 | 14.5 | 0.00 | 0.00 | 0.00 | 47 | 1012.0 |
| 20260506045015 | 18 | 305 | 6.4 | 12.9 | 0.00 | 0.00 | 0.00 | 46 | 1011.8 |
| 20260506044941 | 18 | 292 | 8.0 | 12.9 | 0.00 | 0.00 | 0.00 | 46 | 1011.8 |
| 20260506044853 | 18 | 309 | 8.0 | 12.9 | 0.00 | 0.00 | 0.00 | 46 | 1011.7 |
| 20260506044708 | 18 | 298 | 8.0 | 12.9 | 0.00 | 0.00 | 0.00 | 46 | 1011.7 |
| 20260506044653 | 18 | 305 | 6.4 | 12.9 | 0.00 | 0.00 | 0.00 | 46 | 1011.7 |
| 20260506044546 | 18 | 312 | 6.4 | 12.9 | 0.00 | 0.00 | 0.00 | 47 | 1011.7 |
| 20260506044429 | 18 | 291 | 6.4 | 12.9 | 0.00 | 0.00 | 0.00 | 47 | 1011.6 |
| 20260506044315 | 18 | 299 | 6.4 | 12.9 | 0.00 | 0.00 | 0.00 | 47 | 1011.6 |
| 20260506044215 | 18 | 354 | 6.4 | 12.9 | 0.00 | 0.00 | 0.00 | 47 | 1011.6 |
| 20260506044127 | 18 | 316 | 6.4 | 12.9 | 0.00 | 0.00 | 0.00 | 47 | 1011.5 |
| 20260506044021 | 18 | 280 | 6.4 | 9.7 | 0.00 | 0.00 | 0.00 | 47 | 1011.5 |
| 20260506043907 | 18 | 319 | 6.4 | 9.7 | 0.00 | 0.00 | 0.00 | 47 | 1011.5 |
| 20260506043812 | 18 | 313 | 4.8 | 9.7 | 0.00 | 0.00 | 0.00 | 48 | 1011.5 |
| 20260506043730 | 18 | 297 | 4.8 | 9.7 | 0.00 | 0.00 | 0.00 | 48 | 1011.4 |
| 20260506043624 | 18 | 308 | 4.8 | 9.7 | 0.00 | 0.00 | 0.00 | 48 | 1011.4 |
| 20260506043519 | 18 | 311 | 4.8 | 9.7 | 0.00 | 0.00 | 0.00 | 48 | 1011.3 |
| 20260506043405 | 18 | 289 | 4.8 | 8.0 | 0.00 | 0.00 | 0.00 | 48 | 1011.4 |
| 20260506043317 | 18 | 292 | 4.8 | 8.0 | 0.00 | 0.00 | 0.00 | 48 | 1011.3 |
| 20260506043233 | 18 | 310 | 3.2 | 8.0 | 0.00 | 0.00 | 0.00 | 48 | 1011.3 |
| 20260506043128 | 18 | 290 | 3.2 | 8.0 | 0.00 | 0.00 | 0.00 | 48 | 1011.3 |
| 20260506043023 | 18 | 302 | 4.8 | 8.0 | 0.00 | 0.00 | 0.00 | 48 | 1011.3 |
| 20260506042935 | 18 | 322 | 4.8 | 8.0 | 0.00 | 0.00 | 0.00 | 48 | 1011.3 |
| 20260506042841 | 18 | 281 | 4.8 | 6.4 | 0.00 | 0.00 | 0.00 | 48 | 1011.3 |
| 20260506042705 | 18 | 285 | 3.2 | 6.4 | 0.00 | 0.00 | 0.00 | 48 | 1011.3 |
| 20260506042627 | 18 | 303 | 3.2 | 4.8 | 0.00 | 0.00 | 0.00 | 48 | 1011.3 |
| 20260506042506 | 18 | 298 | 1.6 | 4.8 | 0.00 | 0.00 | 0.00 | 48 | 1011.3 |
| 20260506042438 | 18 | 295 | 3.2 | 4.8 | 0.00 | 0.00 | 0.00 | 48 | 1011.2 |
| 20260506042323 | 18 | 266 | 3.2 | 6.4 | 0.00 | 0.00 | 0.00 | 48 | 1011.2 |
| 20260506042209 | 18 | 287 | 3.2 | 6.4 | 0.00 | 0.00 | 0.00 | 48 | 1011.3 |
| 20260506042130 | 18 | 296 | 3.2 | 6.4 | 0.00 | 0.00 | 0.00 | 47 | 1011.3 |
| 20260506042025 | 18 | 291 | 3.2 | 6.4 | 0.00 | 0.00 | 0.00 | 47 | 1011.2 |
| 20260506041915 | 19 | 299 | 3.2 | 8.0 | 0.00 | 0.00 | 0.00 | 47 | 1011.3 |
| 20260506041820 | 19 | 298 | 3.2 | 8.0 | 0.00 | 0.00 | 0.00 | 46 | 1011.3 |
| 20260506041706 | 19 | 297 | 3.2 | 8.0 | 0.00 | 0.00 | 0.00 | 46 | 1011.2 |
| 20260506041650 | 19 | 299 | 3.2 | 8.0 | 0.00 | 0.00 | 0.00 | 46 | 1011.2 |
| 20260506041524 | 19 | 290 | 3.2 | 11.3 | 0.00 | 0.00 | 0.00 | 46 | 1011.2 |
| 20260506041436 | 19 | 302 | 3.2 | 11.3 | 0.00 | 0.00 | 0.00 | 46 | 1011.2 |
| 20260506041305 | 19 | 294 | 3.2 | 11.3 | 0.00 | 0.00 | 0.00 | 46 | 1011.2 |
| 20260506041211 | 19 | 302 | 4.8 | 11.3 | 0.00 | 0.00 | 0.00 | 45 | 1011.2 |
| 20260506041132 | 19 | 312 | 4.8 | 11.3 | 0.00 | 0.00 | 0.00 | 45 | 1011.2 |
| 20260506041007 | 19 | 281 | 6.4 | 11.3 | 0.00 | 0.00 | 0.00 | 45 | 1011.2 |
| 20260506040913 | 19 | 301 | 6.4 | 11.3 | 0.00 | 0.00 | 0.00 | 45 | 1011.1 |
| 20260506040818 | 19 | 314 | 6.4 | 11.3 | 0.00 | 0.00 | 0.00 | 45 | 1011.1 |
| 20260506040735 | 19 | 287 | 4.8 | 11.3 | 0.00 | 0.00 | 0.00 | 45 | 1011.0 |
| 20260506040651 | 19 | 307 | 3.2 | 11.3 | 0.00 | 0.00 | 0.00 | 45 | 1010.9 |
| 20260506040532 | 19 | 312 | 4.8 | 11.3 | 0.00 | 0.00 | 0.00 | 45 | 1011.0 |
| 20260506040409 | 19 | 293 | 4.8 | 11.3 | 0.00 | 0.00 | 0.00 | 45 | 1010.9 |
| 20260506040314 | 19 | 290 | 6.4 | 11.3 | 0.00 | 0.00 | 0.00 | 45 | 1011.0 |
| 20260506040210 | 19 | 293 | 6.4 | 11.3 | 0.00 | 0.00 | 0.00 | 45 | 1011.0 |
| 20260506040143 | 20 | 295 | 6.4 | 9.7 | 0.00 | 0.00 | 0.00 | 45 | 1010.8 |
| 20260506040021 | 19 | 310 | 6.4 | 11.3 | 0.00 | 0.00 | 0.00 | 45 | 1010.8 |
| 20260506035906 | 19 | 296 | 6.4 | 11.3 | 0.00 | 0.00 | 0.00 | 45 | 1010.8 |
| 20260506035819 | 19 | 323 | 6.4 | 11.3 | 0.00 | 0.00 | 0.00 | 45 | 1010.7 |
| 20260506035736 | 19 | 296 | 6.4 | 11.3 | 0.00 | 0.00 | 0.00 | 45 | 1010.7 |
| 20260506035648 | 19 | 311 | 6.4 | 11.3 | 0.00 | 0.00 | 0.00 | 45 | 1010.8 |
| 20260506035522 | 19 | 297 | 6.4 | 9.7 | 0.00 | 0.00 | 0.00 | 45 | 1010.7 |
| 20260506035438 | 19 | 295 | 6.4 | 9.7 | 0.00 | 0.00 | 0.00 | 45 | 1010.7 |
| 20260506035320 | 19 | 341 | 6.4 | 11.3 | 0.00 | 0.00 | 0.00 | 46 | 1010.6 |
| 20260506035214 | 19 | 291 | 8.0 | 12.9 | 0.00 | 0.00 | 0.00 | 46 | 1010.6 |
| 20260506035125 | 19 | 286 | 8.0 | 12.9 | 0.00 | 0.00 | 0.00 | 46 | 1010.6 |
| 20260506035020 | 19 | 318 | 8.0 | 12.9 | 0.00 | 0.00 | 0.00 | 47 | 1010.6 |
| 20260506034933 | 19 | 310 | 8.0 | 12.9 | 0.00 | 0.00 | 0.00 | 47 | 1010.6 |
| 20260506034819 | 19 | 311 | 8.0 | 12.9 | 0.00 | 0.00 | 0.00 | 47 | 1010.6 |
| 20260506034714 | 19 | 316 | 8.0 | 12.9 | 0.00 | 0.00 | 0.00 | 47 | 1010.6 |
| 20260506034647 | 19 | 310 | 8.0 | 12.9 | 0.00 | 0.00 | 0.00 | 48 | 1010.6 |
| 20260506034521 | 19 | 296 | 9.7 | 12.9 | 0.00 | 0.00 | 0.00 | 48 | 1010.6 |
| 20260506034407 | 19 | 297 | 8.0 | 12.9 | 0.00 | 0.00 | 0.00 | 48 | 1010.6 |
| 20260506034312 | 19 | 322 | 8.0 | 12.9 | 0.00 | 0.00 | 0.00 | 48 | 1010.5 |
| 20260506034211 | 19 | 298 | 9.7 | 12.9 | 0.00 | 0.00 | 0.00 | 47 | 1010.6 |
| 20260506034123 | 19 | 299 | 8.0 | 11.3 | 0.00 | 0.00 | 0.00 | 47 | 1010.5 |
| 20260506034017 | 19 | 309 | 8.0 | 11.3 | 0.00 | 0.00 | 0.00 | 47 | 1010.5 |
| 20260506033930 | 19 | 310 | 8.0 | 9.7 | 0.00 | 0.00 | 0.00 | 47 | 1010.5 |
| 20260506033836 | 19 | 283 | 8.0 | 11.3 | 0.00 | 0.00 | 0.00 | 47 | 1010.5 |
| 20260506033732 | 19 | 322 | 8.0 | 9.7 | 0.00 | 0.00 | 0.00 | 47 | 1010.5 |
| 20260506033625 | 19 | 311 | 6.4 | 9.7 | 0.00 | 0.00 | 0.00 | 47 | 1010.4 |
| 20260506033528 | 20 | 299 | 6.4 | 9.7 | 0.00 | 0.00 | 0.00 | 46 | 1010.5 |
| 20260506033413 | 20 | 288 | 6.4 | 9.7 | 0.00 | 0.00 | 0.00 | 46 | 1010.4 |
| 20260506033317 | 20 | 294 | 8.0 | 9.7 | 0.00 | 0.00 | 0.00 | 46 | 1010.4 |
| 20260506033211 | 20 | 301 | 8.0 | 11.3 | 0.00 | 0.00 | 0.00 | 46 | 1010.4 |
| 20260506033146 | 20 | 299 | 8.0 | 11.3 | 0.00 | 0.00 | 0.00 | 46 | 1010.4 |
| 20260506033027 | 20 | 310 | 8.0 | 11.3 | 0.00 | 0.00 | 0.00 | 45 | 1010.4 |
| 20260506032907 | 20 | 287 | 6.4 | 11.3 | 0.00 | 0.00 | 0.00 | 45 | 1010.4 |
| 20260506032813 | 20 | 289 | 8.0 | 11.3 | 0.00 | 0.00 | 0.00 | 45 | 1010.3 |
| 20260506032709 | 20 | 289 | 6.4 | 11.3 | 0.00 | 0.00 | 0.00 | 45 | 1010.3 |
| 20260506032620 | 20 | 310 | 6.4 | 11.3 | 0.00 | 0.00 | 0.00 | 45 | 1010.3 |
| 20260506032514 | 20 | 298 | 6.4 | 11.3 | 0.00 | 0.00 | 0.00 | 44 | 1010.3 |
| 20260506032431 | 20 | 297 | 6.4 | 11.3 | 0.00 | 0.00 | 0.00 | 44 | 1010.3 |
| 20260506032316 | 20 | 293 | 6.4 | 11.3 | 0.00 | 0.00 | 0.00 | 44 | 1010.3 |
| 20260506032212 | 20 | 295 | 6.4 | 9.7 | 0.00 | 0.00 | 0.00 | 44 | 1010.0 |
| 20260506032124 | 20 | 297 | 6.4 | 9.7 | 0.00 | 0.00 | 0.00 | 44 | 1010.1 |
| 20260506032038 | 20 | 290 | 6.4 | 11.3 | 0.00 | 0.00 | 0.00 | 44 | 1010.1 |
| 20260506031930 | 20 | 312 | 6.4 | 11.3 | 0.00 | 0.00 | 0.00 | 44 | 1010.0 |
| 20260506031820 | 21 | 287 | 6.4 | 11.3 | 0.00 | 0.00 | 0.00 | 43 | 1010.0 |
| 20260506031705 | 21 | 296 | 6.4 | 11.3 | 0.00 | 0.00 | 0.00 | 43 | 1009.8 |
| 20260506031621 | 21 | 289 | 6.4 | 11.3 | 0.00 | 0.00 | 0.00 | 43 | 1010.0 |
| 20260506031519 | 21 | 276 | 6.4 | 11.3 | 0.00 | 0.00 | 0.00 | 43 | 1009.8 |
| 20260506031404 | 21 | 287 | 6.4 | 11.3 | 0.00 | 0.00 | 0.00 | 43 | 1009.8 |
| 20260506031310 | 21 | 311 | 6.4 | 11.3 | 0.00 | 0.00 | 0.00 | 43 | 1009.8 |
| 20260506031209 | 21 | 306 | 4.8 | 11.3 | 0.00 | 0.00 | 0.00 | 43 | 1009.8 |
| 20260506031118 | 21 | 303 | 6.4 | 11.3 | 0.00 | 0.00 | 0.00 | 42 | 1009.8 |
| 20260506031012 | 21 | 274 | 6.4 | 11.3 | 0.00 | 0.00 | 0.00 | 42 | 1009.8 |
| 20260506030946 | 21 | 295 | 4.8 | 11.3 | 0.00 | 0.00 | 0.00 | 42 | 1009.7 |
| 20260506030810 | 21 | 301 | 6.4 | 12.9 | 0.00 | 0.00 | 0.00 | 42 | 1009.8 |
| 20260506030710 | 21 | 303 | 6.4 | 12.9 | 0.00 | 0.00 | 0.00 | 41 | 1009.7 |
| 20260506030643 | 21 | 290 | 6.4 | 12.9 | 0.00 | 0.00 | 0.00 | 41 | 1009.7 |
| 20260506030516 | 21 | 295 | 6.4 | 12.9 | 0.00 | 0.00 | 0.00 | 41 | 1009.7 |
| 20260506030449 | 22 | 315 | 6.4 | 12.9 | 0.00 | 0.00 | 0.00 | 40 | 1009.7 |
| 20260506030334 | 22 | 285 | 4.8 | 12.9 | 0.00 | 0.00 | 0.00 | 40 | 1009.7 |
| 20260506030210 | 22 | 280 | 6.4 | 12.9 | 0.00 | 0.00 | 0.00 | 40 | 1009.7 |
| 20260506030118 | 22 | 298 | 6.4 | 12.9 | 0.00 | 0.00 | 0.00 | 40 | 1009.6 |
| 20260506030016 | 22 | 303 | 8.0 | 12.9 | 0.00 | 0.00 | 0.00 | 39 | 1009.6 |
| 20260506025909 | 22 | 331 | 8.0 | 12.9 | 0.00 | 0.00 | 0.00 | 39 | 1009.6 |
| 20260506025815 | 22 | 347 | 8.0 | 12.9 | 0.00 | 0.00 | 0.00 | 39 | 1009.5 |
| 20260506025712 | 22 | 322 | 8.0 | 12.9 | 0.00 | 0.00 | 0.00 | 39 | 1009.5 |
| 20260506025619 | 22 | 327 | 8.0 | 14.5 | 0.00 | 0.00 | 0.00 | 38 | 1009.5 |
| 20260506025514 | 22 | 326 | 8.0 | 16.1 | 0.00 | 0.00 | 0.00 | 38 | 1009.5 |
| 20260506025424 | 22 | 340 | 8.0 | 16.1 | 0.00 | 0.00 | 0.00 | 38 | 1009.5 |
| 20260506025308 | 22 | 332 | 8.0 | 16.1 | 0.00 | 0.00 | 0.00 | 38 | 1009.5 |
| 20260506025221 | 22 | 315 | 6.4 | 16.1 | 0.00 | 0.00 | 0.00 | 38 | 1009.5 |
| 20260506025116 | 22 | 313 | 6.4 | 16.1 | 0.00 | 0.00 | 0.00 | 38 | 1009.5 |
| 20260506025010 | 22 | 340 | 8.0 | 16.1 | 0.00 | 0.00 | 0.00 | 38 | 1009.5 |
| 20260506024923 | 22 | 339 | 9.7 | 16.1 | 0.00 | 0.00 | 0.00 | 38 | 1009.5 |
| 20260506024813 | 22 | 312 | 9.7 | 16.1 | 0.00 | 0.00 | 0.00 | 37 | 1009.4 |
| 20260506024709 | 22 | 324 | 11.3 | 16.1 | 0.00 | 0.00 | 0.00 | 37 | 1009.4 |
| 20260506024642 | 22 | 325 | 11.3 | 14.5 | 0.00 | 0.00 | 0.00 | 37 | 1009.3 |
| 20260506024515 | 23 | 354 | 11.3 | 14.5 | 0.00 | 0.00 | 0.00 | 37 | 1009.3 |
| 20260506024448 | 23 | 337 | 11.3 | 14.5 | 0.00 | 0.00 | 0.00 | 37 | 1009.2 |
| 20260506024313 | 23 | 186 | 9.7 | 14.5 | 0.00 | 0.00 | 0.00 | 37 | 1009.2 |
| 20260506024213 | 23 | 354 | 9.7 | 14.5 | 0.00 | 0.00 | 0.00 | 37 | 1009.3 |
| 20260506024125 | 23 | 339 | 9.7 | 14.5 | 0.00 | 0.00 | 0.00 | 37 | 1009.2 |
| 20260506024019 | 23 | 344 | 9.7 | 14.5 | 0.00 | 0.00 | 0.00 | 36 | 1009.2 |
| 20260506023905 | 23 | 359 | 9.7 | 14.5 | 0.00 | 0.00 | 0.00 | 37 | 1009.1 |
| 20260506023811 | 23 | 349 | 9.7 | 14.5 | 0.00 | 0.00 | 0.00 | 36 | 1009.1 |
| 20260506023711 | 23 | 331 | 9.7 | 14.5 | 0.00 | 0.00 | 0.00 | 36 | 1009.1 |
| 20260506023622 | 23 | 340 | 9.7 | 14.5 | 0.00 | 0.00 | 0.00 | 37 | 1009.1 |
| 20260506023517 | 23 | 341 | 9.7 | 14.5 | 0.00 | 0.00 | 0.00 | 37 | 1009.0 |
| 20260506023430 | 23 | 345 | 8.0 | 14.5 | 0.00 | 0.00 | 0.00 | 37 | 1009.0 |
| 20260506023314 | 23 | 349 | 8.0 | 14.5 | 0.00 | 0.00 | 0.00 | 37 | 1009.0 |
| 20260506023208 | 23 | 345 | 8.0 | 14.5 | 0.00 | 0.00 | 0.00 | 37 | 1008.9 |
| 20260506023124 | 23 | 347 | 9.7 | 14.5 | 0.00 | 0.00 | 0.00 | 37 | 1009.0 |
| 20260506023025 | 23 | 348 | 9.7 | 14.5 | 0.00 | 0.00 | 0.00 | 36 | 1009.1 |
| 20260506022910 | 23 | 354 | 9.7 | 14.5 | 0.00 | 0.00 | 0.00 | 36 | 1008.9 |
| 20260506022816 | 23 | 328 | 9.7 | 14.5 | 0.00 | 0.00 | 0.00 | 36 | 1008.9 |
| 20260506022712 | 23 | 336 | 9.7 | 14.5 | 0.00 | 0.00 | 0.00 | 36 | 1009.0 |
| 20260506022644 | 23 | 349 | 8.0 | 12.9 | 0.00 | 0.00 | 0.00 | 37 | 1008.8 |
| 20260506022526 | 23 | 321 | 8.0 | 12.9 | 0.00 | 0.00 | 0.00 | 37 | 1008.9 |
| 20260506022414 | 23 | 310 | 8.0 | 14.5 | 0.00 | 0.00 | 0.00 | 37 | 1008.9 |
| 20260506022320 | 23 | 335 | 8.0 | 14.5 | 0.00 | 0.00 | 0.00 | 36 | 1008.8 |
| 20260506022205 | 23 | 337 | 9.7 | 14.5 | 0.00 | 0.00 | 0.00 | 36 | 1008.9 |
| 20260506022121 | 23 | 317 | 9.7 | 14.5 | 0.00 | 0.00 | 0.00 | 36 | 1008.8 |
| 20260506022043 | 23 | 331 | 8.0 | 14.5 | 0.00 | 0.00 | 0.00 | 36 | 1008.8 |
| 20260506021927 | 23 | 332 | 9.7 | 14.5 | 0.00 | 0.00 | 0.00 | 36 | 1008.8 |
| 20260506021808 | 23 | 308 | 9.7 | 17.7 | 0.00 | 0.00 | 0.00 | 36 | 1008.8 |
| 20260506021732 | 24 | 340 | 11.3 | 17.7 | 0.00 | 0.00 | 0.00 | 35 | 1008.7 |
| 20260506021622 | 24 | 311 | 11.3 | 17.7 | 0.00 | 0.00 | 0.00 | 35 | 1008.7 |
| 20260506021516 | 24 | 295 | 11.3 | 17.7 | 0.00 | 0.00 | 0.00 | 35 | 1008.7 |
| 20260506021449 | 24 | 296 | 11.3 | 17.7 | 0.00 | 0.00 | 0.00 | 35 | 1008.8 |
| 20260506021334 | 24 | 354 | 9.7 | 19.3 | 0.00 | 0.00 | 0.00 | 35 | 1008.7 |
| 20260506021233 | 24 | 337 | 11.3 | 19.3 | 0.00 | 0.00 | 0.00 | 35 | 1008.7 |
| 20260506021124 | 24 | 354 | 12.9 | 20.9 | 0.00 | 0.00 | 0.00 | 34 | 1008.7 |
| 20260506021018 | 24 | 343 | 14.5 | 20.9 | 0.00 | 0.00 | 0.00 | 34 | 1008.7 |
| 20260506020931 | 24 | 14 | 14.5 | 20.9 | 0.00 | 0.00 | 0.00 | 33 | 1008.7 |
| 20260506020836 | 24 | 331 | 12.9 | 20.9 | 0.00 | 0.00 | 0.00 | 34 | 1008.6 |
| 20260506020711 | 25 | 295 | 12.9 | 20.9 | 0.00 | 0.00 | 0.00 | 34 | 1008.6 |
| 20260506020626 | 25 | 341 | 12.9 | 20.9 | 0.00 | 0.00 | 0.00 | 34 | 1008.6 |
| 20260506020520 | 25 | 283 | 14.5 | 20.9 | 0.00 | 0.00 | 0.00 | 33 | 1008.5 |
| 20260506020433 | 25 | 312 | 14.5 | 20.9 | 0.00 | 0.00 | 0.00 | 33 | 1008.5 |
| 20260506020310 | 25 | 297 | 12.9 | 20.9 | 0.00 | 0.00 | 0.00 | 34 | 1008.5 |
| 20260506020216 | 25 | 295 | 12.9 | 20.9 | 0.00 | 0.00 | 0.00 | 34 | 1008.5 |
| 20260506020152 | 25 | 305 | 12.9 | 20.9 | 0.00 | 0.00 | 0.00 | 34 | 1008.5 |
| 20260506020009 | 25 | 308 | 12.9 | 19.3 | 0.00 | 0.00 | 0.00 | 34 | 1008.6 |
| 20260506015915 | 25 | 291 | 12.9 | 19.3 | 0.00 | 0.00 | 0.00 | 34 | 1008.5 |
| 20260506015821 | 25 | 295 | 11.3 | 19.3 | 0.00 | 0.00 | 0.00 | 34 | 1008.5 |
| 20260506015707 | 25 | 310 | 12.9 | 19.3 | 0.00 | 0.00 | 0.00 | 33 | 1008.5 |
| 20260506015630 | 25 | 314 | 12.9 | 19.3 | 0.00 | 0.00 | 0.00 | 33 | 1008.5 |
| 20260506015506 | 25 | 319 | 11.3 | 19.3 | 0.00 | 0.00 | 0.00 | 34 | 1008.5 |
| 20260506015442 | 25 | 332 | 11.3 | 16.1 | 0.00 | 0.00 | 0.00 | 33 | 1008.5 |
| 20260506015307 | 25 | 347 | 9.7 | 17.7 | 0.00 | 0.00 | 0.00 | 33 | 1008.5 |
| 20260506015212 | 25 | 332 | 11.3 | 17.7 | 0.00 | 0.00 | 0.00 | 33 | 1008.6 |
| 20260506015134 | 25 | 299 | 9.7 | 17.7 | 0.00 | 0.00 | 0.00 | 32 | 1008.5 |
| 20260506015029 | 25 | 345 | 9.7 | 17.7 | 0.00 | 0.00 | 0.00 | 32 | 1008.5 |
| 20260506014906 | 25 | 335 | 11.3 | 17.7 | 0.00 | 0.00 | 0.00 | 32 | 1008.5 |
| 20260506014815 | 25 | 359 | 11.3 | 17.7 | 0.00 | 0.00 | 0.00 | 31 | 1008.5 |
| 20260506014711 | 25 | 335 | 11.3 | 17.7 | 0.00 | 0.00 | 0.00 | 31 | 1008.3 |
| 20260506014622 | 25 | 350 | 12.9 | 17.7 | 0.00 | 0.00 | 0.00 | 30 | 1008.4 |
| 20260506014544 | 25 | 349 | 14.5 | 17.7 | 0.00 | 0.00 | 0.00 | 30 | 1008.5 |
| 20260506014408 | 26 | 354 | 14.5 | 17.7 | 0.00 | 0.00 | 0.00 | 29 | 1008.4 |
| 20260506014314 | 26 | 344 | 14.5 | 17.7 | 0.00 | 0.00 | 0.00 | 30 | 1008.5 |
| 20260506014213 | 26 | 349 | 11.3 | 16.1 | 0.00 | 0.00 | 0.00 | 31 | 1008.5 |
| 20260506014125 | 26 | 354 | 9.7 | 16.1 | 0.00 | 0.00 | 0.00 | 30 | 1008.3 |
| 20260506014020 | 26 | 332 | 9.7 | 14.5 | 0.00 | 0.00 | 0.00 | 31 | 1008.3 |
| 20260506013905 | 26 | 332 | 9.7 | 14.5 | 0.00 | 0.00 | 0.00 | 30 | 1008.3 |
| 20260506013839 | 26 | 347 | 9.7 | 14.5 | 0.00 | 0.00 | 0.00 | 30 | 1008.3 |
| 20260506013734 | 26 | 354 | 9.7 | 14.5 | 0.00 | 0.00 | 0.00 | 31 | 1008.3 |
| 20260506013629 | 26 | 323 | 8.0 | 12.9 | 0.00 | 0.00 | 0.00 | 31 | 1008.4 |
| 20260506013523 | 26 | 328 | 8.0 | 12.9 | 0.00 | 0.00 | 0.00 | 31 | 1008.3 |
| 20260506013434 | 26 | 309 | 8.0 | 12.9 | 0.00 | 0.00 | 0.00 | 31 | 1008.3 |
| 20260506013319 | 26 | 336 | 6.4 | 12.9 | 0.00 | 0.00 | 0.00 | 33 | 1008.3 |
| 20260506013215 | 26 | 339 | 8.0 | 14.5 | 0.00 | 0.00 | 0.00 | 32 | 1008.3 |
| 20260506013118 | 26 | 293 | 8.0 | 14.5 | 0.00 | 0.00 | 0.00 | 31 | 1008.3 |
| 20260506013043 | 26 | 321 | 8.0 | 14.5 | 0.00 | 0.00 | 0.00 | 30 | 1008.3 |
| 20260506012908 | 26 | 336 | 8.0 | 14.5 | 0.00 | 0.00 | 0.00 | 31 | 1008.3 |
| 20260506012811 | 26 | 345 | 8.0 | 14.5 | 0.00 | 0.00 | 0.00 | 30 | 1008.3 |
| 20260506012707 | 26 | 354 | 9.7 | 14.5 | 0.00 | 0.00 | 0.00 | 30 | 1008.3 |
| 20260506012617 | 26 | 345 | 9.7 | 14.5 | 0.00 | 0.00 | 0.00 | 29 | 1008.4 |
| 20260506012533 | 26 | 335 | 9.7 | 14.5 | 0.00 | 0.00 | 0.00 | 30 | 1008.3 |
| 20260506012413 | 26 | 4 | 8.0 | 14.5 | 0.00 | 0.00 | 0.00 | 29 | 1008.3 |
| 20260506012325 | 26 | 354 | 6.4 | 14.5 | 0.00 | 0.00 | 0.00 | 29 | 1008.3 |
| 20260506012231 | 26 | 354 | 6.4 | 14.5 | 0.00 | 0.00 | 0.00 | 30 | 1008.3 |
| 20260506012133 | 26 | 341 | 6.4 | 14.5 | 0.00 | 0.00 | 0.00 | 30 | 1008.3 |
| 20260506012008 | 26 | 359 | 6.4 | 14.5 | 0.00 | 0.00 | 0.00 | 29 | 1008.3 |
| 20260506011913 | 26 | 72 | 6.4 | 14.5 | 0.00 | 0.00 | 0.00 | 29 | 1008.4 |
| 20260506011823 | 26 | 13 | 6.4 | 16.1 | 0.00 | 0.00 | 0.00 | 31 | 1008.3 |
| 20260506011709 | 26 | 359 | 8.0 | 16.1 | 0.00 | 0.00 | 0.00 | 30 | 1008.3 |
| 20260506011653 | 26 | 349 | 8.0 | 16.1 | 0.00 | 0.00 | 0.00 | 29 | 1008.3 |
| 20260506011506 | 26 | 359 | 9.7 | 16.1 | 0.00 | 0.00 | 0.00 | 30 | 1008.3 |
| 20260506011412 | 26 | 359 | 9.7 | 16.1 | 0.00 | 0.00 | 0.00 | 30 | 1008.3 |
| 20260506011325 | 26 | 331 | 8.0 | 16.1 | 0.00 | 0.00 | 0.00 | 29 | 1008.2 |
| 20260506011205 | 26 | 4 | 6.4 | 16.1 | 0.00 | 0.00 | 0.00 | 29 | 1008.2 |
| 20260506011130 | 26 | 8 | 8.0 | 16.1 | 0.00 | 0.00 | 0.00 | 29 | 1008.2 |
| 20260506011031 | 26 | 4 | 9.7 | 16.1 | 0.00 | 0.00 | 0.00 | 28 | 1008.2 |
| 20260506010937 | 26 | 345 | 9.7 | 14.5 | 0.00 | 0.00 | 0.00 | 29 | 1008.3 |
| 20260506010907 | 26 | 345 | 9.7 | 14.5 | 0.00 | 0.00 | 0.00 | 29 | 1008.3 |
| 20260506010813 | 26 | 347 | 9.7 | 14.5 | 0.00 | 0.00 | 0.00 | 29 | 1008.2 |
| 20260506010726 | 26 | 350 | 6.4 | 12.9 | 0.00 | 0.00 | 0.00 | 29 | 1008.2 |
| 20260506010625 | 26 | 349 | 6.4 | 12.9 | 0.00 | 0.00 | 0.00 | 28 | 1008.2 |
| 20260506010526 | 26 | 8 | 4.8 | 12.9 | 0.00 | 0.00 | 0.00 | 29 | 1008.2 |
| 20260506010411 | 26 | 4 | 4.8 | 12.9 | 0.00 | 0.00 | 0.00 | 28 | 1008.2 |
| 20260506010344 | 26 | 345 | 4.8 | 12.9 | 0.00 | 0.00 | 0.00 | 28 | 1008.2 |
| 20260506010208 | 26 | 12 | 6.4 | 12.9 | 0.00 | 0.00 | 0.00 | 28 | 1008.2 |
| 20260506010124 | 27 | 349 | 6.4 | 12.9 | 0.00 | 0.00 | 0.00 | 29 | 1008.2 |
| 20260506010029 | 27 | 4 | 8.0 | 12.9 | 0.00 | 0.00 | 0.00 | 29 | 1008.1 |
| 20260506005915 | 27 | 341 | 8.0 | 12.9 | 0.00 | 0.00 | 0.00 | 28 | 1008.1 |
| 20260506005822 | 27 | 344 | 8.0 | 12.9 | 0.00 | 0.00 | 0.00 | 30 | 1008.2 |
| 20260506005708 | 27 | 332 | 6.4 | 12.9 | 0.00 | 0.00 | 0.00 | 28 | 1008.2 |
| 20260506005620 | 27 | 343 | 6.4 | 20.9 | 0.00 | 0.00 | 0.00 | 30 | 1008.2 |
| 20260506005516 | 27 | 359 | 3.2 | 20.9 | 0.00 | 0.00 | 0.00 | 28 | 1008.2 |
| 20260506005432 | 26 | 4 | 3.2 | 20.9 | 0.00 | 0.00 | 0.00 | 30 | 1008.1 |
| 20260506005337 | 26 | 4 | 4.8 | 20.9 | 0.00 | 0.00 | 0.00 | 30 | 1008.2 |
| 20260506005232 | 26 | 347 | 6.4 | 20.9 | 0.00 | 0.00 | 0.00 | 29 | 1008.1 |
| 20260506005123 | 26 | 345 | 8.0 | 20.9 | 0.00 | 0.00 | 0.00 | 29 | 1008.1 |
| 20260506005036 | 26 | 343 | 8.0 | 20.9 | 0.00 | 0.00 | 0.00 | 29 | 1008.2 |
| 20260506004920 | 26 | 340 | 8.0 | 20.9 | 0.00 | 0.00 | 0.00 | 29 | 1008.2 |
| 20260506004810 | 26 | 9 | 6.4 | 20.9 | 0.00 | 0.00 | 0.00 | 29 | 1008.1 |
| 20260506004734 | 26 | 291 | 8.0 | 20.9 | 0.00 | 0.00 | 0.00 | 29 | 1008.2 |
| 20260506004638 | 26 | 316 | 8.0 | 16.1 | 0.00 | 0.00 | 0.00 | 29 | 1008.2 |
| 20260506004540 | 26 | 316 | 6.4 | 16.1 | 0.00 | 0.00 | 0.00 | 28 | 1008.2 |
| 20260506004424 | 26 | 330 | 4.8 | 9.7 | 0.00 | 0.00 | 0.00 | 27 | 1008.2 |
| 20260506004337 | 26 | 354 | 4.8 | 9.7 | 0.00 | 0.00 | 0.00 | 27 | 1008.2 |
| 20260506004212 | 26 | 332 | 4.8 | 9.7 | 0.00 | 0.00 | 0.00 | 27 | 1008.2 |
| 20260506004128 | 26 | 354 | 4.8 | 9.7 | 0.00 | 0.00 | 0.00 | 28 | 1008.2 |
| 20260506004022 | 26 | 354 | 3.2 | 8.0 | 0.00 | 0.00 | 0.00 | 27 | 1008.3 |
| 20260506003928 | 26 | 354 | 3.2 | 9.7 | 0.00 | 0.00 | 0.00 | 27 | 1008.3 |
| 20260506003820 | 26 | 359 | 3.2 | 9.7 | 0.00 | 0.00 | 0.00 | 27 | 1008.2 |
| 20260506003716 | 26 | 12 | 3.2 | 9.7 | 0.00 | 0.00 | 0.00 | 27 | 1008.3 |
| 20260506003621 | 26 | 354 | 4.8 | 9.7 | 0.00 | 0.00 | 0.00 | 28 | 1008.3 |
| 20260506003524 | 26 | 310 | 4.8 | 9.7 | 0.00 | 0.00 | 0.00 | 27 | 1008.3 |
| 20260506003410 | 26 | 344 | 4.8 | 9.7 | 0.00 | 0.00 | 0.00 | 28 | 1008.4 |
| 20260506003315 | 27 | 354 | 4.8 | 9.7 | 0.00 | 0.00 | 0.00 | 28 | 1008.3 |
| 20260506003211 | 27 | 339 | 6.4 | 14.5 | 0.00 | 0.00 | 0.00 | 28 | 1008.3 |
| 20260506003122 | 27 | 330 | 6.4 | 14.5 | 0.00 | 0.00 | 0.00 | 27 | 1008.3 |
| 20260506003016 | 27 | 328 | 6.4 | 14.5 | 0.00 | 0.00 | 0.00 | 28 | 1008.3 |
| 20260506002906 | 27 | 349 | 6.4 | 14.5 | 0.00 | 0.00 | 0.00 | 28 | 1008.4 |
| 20260506002818 | 27 | 320 | 6.4 | 14.5 | 0.00 | 0.00 | 0.00 | 27 | 1008.3 |
| 20260506002714 | 27 | 354 | 4.8 | 14.5 | 0.00 | 0.00 | 0.00 | 26 | 1008.3 |
| 20260506002618 | 27 | 359 | 6.4 | 14.5 | 0.00 | 0.00 | 0.00 | 25 | 1008.4 |
| 20260506002520 | 27 | 359 | 8.0 | 14.5 | 0.00 | 0.00 | 0.00 | 25 | 1008.3 |
| 20260506002409 | 27 | 10 | 9.7 | 14.5 | 0.00 | 0.00 | 0.00 | 25 | 1008.3 |
| 20260506002315 | 27 | 8 | 9.7 | 14.5 | 0.00 | 0.00 | 0.00 | 25 | 1008.4 |
| 20260506002211 | 27 | 15 | 6.4 | 14.5 | 0.00 | 0.00 | 0.00 | 27 | 1008.3 |
| 20260506002122 | 27 | 14 | 4.8 | 9.7 | 0.00 | 0.00 | 0.00 | 27 | 1008.3 |
| 20260506002015 | 27 | 338 | 4.8 | 9.7 | 0.00 | 0.00 | 0.00 | 27 | 1008.3 |
| 20260506001905 | 27 | 359 | 6.4 | 9.7 | 0.00 | 0.00 | 0.00 | 27 | 1008.4 |
| 20260506001811 | 27 | 343 | 6.4 | 12.9 | 0.00 | 0.00 | 0.00 | 27 | 1008.3 |
| 20260506001714 | 27 | 16 | 6.4 | 12.9 | 0.00 | 0.00 | 0.00 | 26 | 1008.3 |
| 20260506001619 | 27 | 354 | 4.8 | 12.9 | 0.00 | 0.00 | 0.00 | 26 | 1008.3 |
| 20260506001540 | 27 | 4 | 6.4 | 14.5 | 0.00 | 0.00 | 0.00 | 28 | 1008.3 |
| 20260506001405 | 27 | 328 | 4.8 | 14.5 | 0.00 | 0.00 | 0.00 | 26 | 1008.4 |
| 20260506001315 | 27 | 336 | 4.8 | 14.5 | 0.00 | 0.00 | 0.00 | 26 | 1008.4 |
| 20260506001211 | 27 | 332 | 6.4 | 14.5 | 0.00 | 0.00 | 0.00 | 26 | 1008.4 |
| 20260506001123 | 27 | 350 | 6.4 | 14.5 | 0.00 | 0.00 | 0.00 | 26 | 1008.4 |
| 20260506001017 | 27 | 4 | 6.4 | 14.5 | 0.00 | 0.00 | 0.00 | 26 | 1008.4 |
| 20260506000929 | 27 | 354 | 6.4 | 14.5 | 0.00 | 0.00 | 0.00 | 25 | 1008.4 |
| 20260506000836 | 27 | 14 | 6.4 | 14.5 | 0.00 | 0.00 | 0.00 | 27 | 1008.4 |
| 20260506000713 | 27 | 349 | 8.0 | 14.5 | 0.00 | 0.00 | 0.00 | 26 | 1008.4 |
| 20260506000625 | 27 | 359 | 9.7 | 14.5 | 0.00 | 0.00 | 0.00 | 28 | 1008.4 |
| 20260506000520 | 27 | 359 | 8.0 | 12.9 | 0.00 | 0.00 | 0.00 | 27 | 1008.3 |
| 20260506000433 | 27 | 354 | 6.4 | 14.5 | 0.00 | 0.00 | 0.00 | 28 | 1008.3 |
| 20260506000317 | 27 | 320 | 4.8 | 14.5 | 0.00 | 0.00 | 0.00 | 26 | 1008.4 |
| 20260506000213 | 27 | 354 | 3.2 | 14.5 | 0.00 | 0.00 | 0.00 | 25 | 1008.4 |
| 20260506000129 | 26 | 22 | 4.8 | 14.5 | 0.00 | 0.00 | 0.00 | 26 | 1008.3 |
| 20260506000044 | 26 | 24 | 6.4 | 14.5 | 0.00 | 0.00 | 0.00 | 26 | 1008.4 |
| 20260505235908 | 26 | 20 | 8.0 | 19.3 | 0.00 | 0.00 | 0.00 | 29 | 1008.4 |
| 20260505235821 | 26 | 343 | 8.0 | 19.3 | 0.00 | 0.00 | 0.00 | 29 | 1008.4 |
| 20260505235707 | 26 | 328 | 8.0 | 22.5 | 0.00 | 0.00 | 0.00 | 29 | 1008.3 |
| 20260505235623 | 26 | 333 | 8.0 | 22.5 | 0.00 | 0.00 | 0.00 | 28 | 1008.4 |
| 20260505235529 | 26 | 332 | 8.0 | 22.5 | 0.00 | 0.00 | 0.00 | 28 | 1008.3 |
| 20260505235414 | 26 | 314 | 9.7 | 22.5 | 0.00 | 0.00 | 0.00 | 29 | 1008.4 |
| 20260505235319 | 26 | 278 | 9.7 | 22.5 | 0.00 | 0.00 | 0.00 | 28 | 1008.3 |
| 20260505235215 | 26 | 322 | 9.7 | 22.5 | 0.00 | 0.00 | 0.00 | 29 | 1008.3 |
| 20260505235126 | 26 | 289 | 12.9 | 22.5 | 0.00 | 0.00 | 0.00 | 27 | 1008.4 |
| 20260505235048 | 26 | 276 | 12.9 | 22.5 | 0.00 | 0.00 | 0.00 | 27 | 1008.3 |
| 20260505234917 | 26 | 278 | 8.0 | 16.1 | 0.00 | 0.00 | 0.00 | 28 | 1008.3 |
| 20260505234814 | 26 | 343 | 8.0 | 14.5 | 0.00 | 0.00 | 0.00 | 29 | 1008.3 |
| 20260505234710 | 26 | 281 | 8.0 | 14.5 | 0.00 | 0.00 | 0.00 | 27 | 1008.3 |
| 20260505234621 | 26 | 328 | 6.4 | 14.5 | 0.00 | 0.00 | 0.00 | 27 | 1008.3 |
| 20260505234515 | 26 | 314 | 8.0 | 14.5 | 0.00 | 0.00 | 0.00 | 26 | 1008.4 |
| 20260505234405 | 26 | 325 | 8.0 | 14.5 | 0.00 | 0.00 | 0.00 | 28 | 1008.5 |
| 20260505234311 | 26 | 335 | 8.0 | 14.5 | 0.00 | 0.00 | 0.00 | 27 | 1008.3 |
| 20260505234235 | 27 | 326 | 8.0 | 14.5 | 0.00 | 0.00 | 0.00 | 25 | 1008.4 |
| 20260505234124 | 27 | 333 | 8.0 | 14.5 | 0.00 | 0.00 | 0.00 | 25 | 1008.3 |
| 20260505234039 | 27 | 18 | 6.4 | 12.9 | 0.00 | 0.00 | 0.00 | 26 | 1008.3 |
| 20260505233931 | 27 | 354 | 4.8 | 12.9 | 0.00 | 0.00 | 0.00 | 25 | 1008.4 |
| 20260505233811 | 27 | 18 | 4.8 | 12.9 | 0.00 | 0.00 | 0.00 | 26 | 1008.4 |
| 20260505233706 | 27 | 12 | 6.4 | 12.9 | 0.00 | 0.00 | 0.00 | 27 | 1008.4 |
| 20260505233638 | 27 | 349 | 8.0 | 12.9 | 0.00 | 0.00 | 0.00 | 27 | 1008.4 |
| 20260505233511 | 27 | 359 | 8.0 | 12.9 | 0.00 | 0.00 | 0.00 | 26 | 1008.5 |
| 20260505233416 | 27 | 345 | 6.4 | 12.9 | 0.00 | 0.00 | 0.00 | 26 | 1008.3 |
| 20260505233322 | 27 | 10 | 4.8 | 12.9 | 0.00 | 0.00 | 0.00 | 26 | 1008.5 |
| 20260505233240 | 27 | 27 | 4.8 | 12.9 | 0.00 | 0.00 | 0.00 | 26 | 1008.4 |
| 20260505233147 | 27 | 20 | 6.4 | 12.9 | 0.00 | 0.00 | 0.00 | 26 | 1008.6 |
| 20260505233028 | 27 | 359 | 6.4 | 17.7 | 0.00 | 0.00 | 0.00 | 27 | 1008.5 |
| 20260505232934 | 27 | 354 | 8.0 | 19.3 | 0.00 | 0.00 | 0.00 | 29 | 1008.5 |
| 20260505232819 | 27 | 349 | 6.4 | 19.3 | 0.00 | 0.00 | 0.00 | 27 | 1008.5 |
| 20260505232713 | 27 | 330 | 6.4 | 19.3 | 0.00 | 0.00 | 0.00 | 26 | 1008.5 |
| 20260505232624 | 27 | 321 | 8.0 | 19.3 | 0.00 | 0.00 | 0.00 | 26 | 1008.6 |
| 20260505232530 | 27 | 330 | 8.0 | 19.3 | 0.00 | 0.00 | 0.00 | 26 | 1008.5 |
| 20260505232414 | 27 | 318 | 9.7 | 19.3 | 0.00 | 0.00 | 0.00 | 27 | 1008.5 |
| 20260505232320 | 27 | 294 | 11.3 | 19.3 | 0.00 | 0.00 | 0.00 | 27 | 1008.5 |
| 20260505232207 | 27 | 301 | 11.3 | 19.3 | 0.00 | 0.00 | 0.00 | 28 | 1008.5 |
| 20260505232118 | 27 | 327 | 11.3 | 19.3 | 0.00 | 0.00 | 0.00 | 27 | 1008.5 |
| 20260505232012 | 27 | 287 | 9.7 | 19.3 | 0.00 | 0.00 | 0.00 | 29 | 1008.5 |
| 20260505231929 | 27 | 327 | 8.0 | 17.7 | 0.00 | 0.00 | 0.00 | 28 | 1008.5 |
| 20260505231815 | 27 | 305 | 6.4 | 17.7 | 0.00 | 0.00 | 0.00 | 27 | 1008.5 |
| 20260505231741 | 27 | 333 | 6.4 | 17.7 | 0.00 | 0.00 | 0.00 | 26 | 1008.5 |
| 20260505231633 | 27 | 312 | 8.0 | 17.7 | 0.00 | 0.00 | 0.00 | 27 | 1008.5 |
| 20260505231507 | 27 | 310 | 8.0 | 17.7 | 0.00 | 0.00 | 0.00 | 25 | 1008.5 |
| 20260505231413 | 27 | 293 | 3.2 | 12.9 | 0.00 | 0.00 | 0.00 | 27 | 1008.5 |
| 20260505231331 | 27 | 354 | 4.8 | 12.9 | 0.00 | 0.00 | 0.00 | 27 | 1008.5 |
| 20260505231205 | 27 | 68 | 8.0 | 16.1 | 0.00 | 0.00 | 0.00 | 30 | 1008.6 |
| 20260505231117 | 27 | 333 | 8.0 | 16.1 | 0.00 | 0.00 | 0.00 | 29 | 1008.5 |
| 20260505231011 | 27 | 302 | 6.4 | 16.1 | 0.00 | 0.00 | 0.00 | 27 | 1008.5 |
| 20260505230924 | 27 | 331 | 6.4 | 16.1 | 0.00 | 0.00 | 0.00 | 27 | 1008.6 |
| 20260505230810 | 27 | 330 | 9.7 | 16.1 | 0.00 | 0.00 | 0.00 | 27 | 1008.6 |
| 20260505230731 | 27 | 345 | 9.7 | 16.1 | 0.00 | 0.00 | 0.00 | 28 | 1008.6 |
| 20260505230621 | 27 | 343 | 9.7 | 16.1 | 0.00 | 0.00 | 0.00 | 28 | 1008.6 |
| 20260505230516 | 27 | 345 | 8.0 | 16.1 | 0.00 | 0.00 | 0.00 | 28 | 1008.6 |
| 20260505230422 | 27 | 337 | 8.0 | 16.1 | 0.00 | 0.00 | 0.00 | 30 | 1008.6 |
| 20260505230308 | 27 | 335 | 6.4 | 14.5 | 0.00 | 0.00 | 0.00 | 29 | 1008.6 |
| 20260505230211 | 27 | 328 | 6.4 | 14.5 | 0.00 | 0.00 | 0.00 | 27 | 1008.6 |
| 20260505230116 | 27 | 312 | 6.4 | 14.5 | 0.00 | 0.00 | 0.00 | 29 | 1008.6 |
| 20260505230038 | 27 | 325 | 6.4 | 14.5 | 0.00 | 0.00 | 0.00 | 27 | 1008.6 |
| 20260505225923 | 27 | 9 | 6.4 | 16.1 | 0.00 | 0.00 | 0.00 | 29 | 1008.6 |
| 20260505225809 | 27 | 335 | 6.4 | 16.1 | 0.00 | 0.00 | 0.00 | 26 | 1008.6 |
| 20260505225705 | 27 | 343 | 6.4 | 16.1 | 0.00 | 0.00 | 0.00 | 26 | 1008.6 |
| 20260505225617 | 27 | 4 | 6.4 | 16.1 | 0.00 | 0.00 | 0.00 | 27 | 1008.6 |
| 20260505225516 | 27 | 341 | 8.0 | 16.1 | 0.00 | 0.00 | 0.00 | 28 | 1008.7 |
| 20260505225428 | 27 | 330 | 6.4 | 16.1 | 0.00 | 0.00 | 0.00 | 27 | 1008.7 |
| 20260505225314 | 27 | 14 | 6.4 | 16.1 | 0.00 | 0.00 | 0.00 | 28 | 1008.6 |
| 20260505225210 | 27 | 4 | 8.0 | 16.1 | 0.00 | 0.00 | 0.00 | 28 | 1008.7 |
| 20260505225142 | 27 | 10 | 8.0 | 16.1 | 0.00 | 0.00 | 0.00 | 27 | 1008.7 |
| 20260505225020 | 27 | 336 | 8.0 | 12.9 | 0.00 | 0.00 | 0.00 | 28 | 1008.6 |
| 20260505224926 | 27 | 339 | 6.4 | 14.5 | 0.00 | 0.00 | 0.00 | 27 | 1008.6 |
| 20260505224839 | 27 | 23 | 6.4 | 14.5 | 0.00 | 0.00 | 0.00 | 27 | 1008.6 |
| 20260505224715 | 27 | 326 | 4.8 | 14.5 | 0.00 | 0.00 | 0.00 | 26 | 1008.7 |
| 20260505224639 | 27 | 4 | 4.8 | 14.5 | 0.00 | 0.00 | 0.00 | 27 | 1008.7 |
| 20260505224513 | 27 | 28 | 3.2 | 14.5 | 0.00 | 0.00 | 0.00 | 28 | 1008.7 |
| 20260505224439 | 27 | 345 | 3.2 | 14.5 | 0.00 | 0.00 | 0.00 | 30 | 1008.6 |
| 20260505224336 | 27 | 322 | 4.8 | 14.5 | 0.00 | 0.00 | 0.00 | 32 | 1008.8 |
| 20260505224211 | 27 | 289 | 4.8 | 14.5 | 0.00 | 0.00 | 0.00 | 29 | 1008.8 |
| 20260505224142 | 27 | 293 | 4.8 | 14.5 | 0.00 | 0.00 | 0.00 | 29 | 1008.8 |
| 20260505224037 | 27 | 335 | 4.8 | 8.0 | 0.00 | 0.00 | 0.00 | 30 | 1009.0 |
| 20260505223922 | 26 | 345 | 4.8 | 8.0 | 0.00 | 0.00 | 0.00 | 28 | 1008.9 |
| 20260505223834 | 26 | 20 | 3.2 | 8.0 | 0.00 | 0.00 | 0.00 | 28 | 1008.9 |
| 20260505223713 | 26 | 359 | 3.2 | 8.0 | 0.00 | 0.00 | 0.00 | 30 | 1009.1 |
| 20260505223645 | 26 | 338 | 3.2 | 14.5 | 0.00 | 0.00 | 0.00 | 30 | 1009.1 |
| 20260505223517 | 26 | 359 | 3.2 | 19.3 | 0.00 | 0.00 | 0.00 | 28 | 1009.1 |
| 20260505223422 | 26 | 350 | 3.2 | 19.3 | 0.00 | 0.00 | 0.00 | 28 | 1009.1 |
| 20260505223328 | 26 | 16 | 3.2 | 19.3 | 0.00 | 0.00 | 0.00 | 29 | 1009.1 |
| 20260505223215 | 26 | 345 | 1.6 | 19.3 | 0.00 | 0.00 | 0.00 | 30 | 1009.2 |
| 20260505223131 | 26 | 345 | 3.2 | 19.3 | 0.00 | 0.00 | 0.00 | 29 | 1009.2 |
| 20260505223006 | 26 | 354 | 4.8 | 19.3 | 0.00 | 0.00 | 0.00 | 29 | 1009.1 |
| 20260505222939 | 26 | 320 | 6.4 | 19.3 | 0.00 | 0.00 | 0.00 | 29 | 1009.2 |
| 20260505222824 | 26 | 310 | 11.3 | 19.3 | 0.00 | 0.00 | 0.00 | 28 | 1009.2 |
| 20260505222709 | 26 | 322 | 9.7 | 19.3 | 0.00 | 0.00 | 0.00 | 33 | 1009.2 |
| 20260505222632 | 26 | 291 | 6.4 | 19.3 | 0.00 | 0.00 | 0.00 | 33 | 1009.1 |
| 20260505222511 | 26 | 319 | 4.8 | 14.5 | 0.00 | 0.00 | 0.00 | 28 | 1009.1 |
| 20260505222416 | 26 | 340 | 3.2 | 14.5 | 0.00 | 0.00 | 0.00 | 29 | 1009.1 |
| 20260505222322 | 26 | 314 | 3.2 | 14.5 | 0.00 | 0.00 | 0.00 | 30 | 1009.2 |
| 20260505222207 | 26 | 341 | 3.2 | 14.5 | 0.00 | 0.00 | 0.00 | 31 | 1009.1 |
| 20260505222130 | 26 | 344 | 3.2 | 14.5 | 0.00 | 0.00 | 0.00 | 28 | 1009.2 |
| 20260505222026 | 26 | 18 | 4.8 | 14.5 | 0.00 | 0.00 | 0.00 | 29 | 1009.2 |
| 20260505221922 | 26 | 13 | 6.4 | 14.5 | 0.00 | 0.00 | 0.00 | 30 | 1009.2 |
| 20260505221827 | 26 | 342 | 8.0 | 14.5 | 0.00 | 0.00 | 0.00 | 27 | 1009.2 |
| 20260505221714 | 26 | 301 | 8.0 | 14.5 | 0.00 | 0.00 | 0.00 | 29 | 1009.1 |
| 20260505221627 | 26 | 276 | 8.0 | 12.9 | 0.00 | 0.00 | 0.00 | 29 | 1009.2 |
| 20260505221541 | 26 | 295 | 6.4 | 12.9 | 0.00 | 0.00 | 0.00 | 30 | 1009.2 |
| 20260505221432 | 26 | 347 | 6.4 | 12.9 | 0.00 | 0.00 | 0.00 | 30 | 1009.2 |
| 20260505221341 | 26 | 359 | 6.4 | 14.5 | 0.00 | 0.00 | 0.00 | 29 | 1009.2 |
| 20260505221235 | 26 | 340 | 6.4 | 14.5 | 0.00 | 0.00 | 0.00 | 28 | 1009.3 |
| 20260505221129 | 26 | 296 | 6.4 | 14.5 | 0.00 | 0.00 | 0.00 | 28 | 1009.3 |
| 20260505221051 | 26 | 305 | 6.4 | 14.5 | 0.00 | 0.00 | 0.00 | 29 | 1009.3 |
| 20260505220916 | 26 | 359 | 6.4 | 14.5 | 0.00 | 0.00 | 0.00 | 29 | 1009.3 |
| 20260505220821 | 26 | 340 | 4.8 | 17.7 | 0.00 | 0.00 | 0.00 | 29 | 1009.2 |
| 20260505220711 | 26 | 349 | 6.4 | 17.7 | 0.00 | 0.00 | 0.00 | 28 | 1009.3 |
| 20260505220634 | 26 | 4 | 8.0 | 17.7 | 0.00 | 0.00 | 0.00 | 29 | 1009.3 |
| 20260505220546 | 26 | 347 | 8.0 | 17.7 | 0.00 | 0.00 | 0.00 | 27 | 1009.3 |
| 20260505220410 | 26 | 4 | 8.0 | 17.7 | 0.00 | 0.00 | 0.00 | 28 | 1009.2 |
| 20260505220343 | 26 | 359 | 8.0 | 17.7 | 0.00 | 0.00 | 0.00 | 27 | 1009.3 |
| 20260505220208 | 26 | 11 | 8.0 | 17.7 | 0.00 | 0.00 | 0.00 | 27 | 1009.3 |
| 20260505220152 | 26 | 39 | 9.7 | 17.7 | 0.00 | 0.00 | 0.00 | 27 | 1009.3 |
| 20260505220009 | 26 | 359 | 8.0 | 20.9 | 0.00 | 0.00 | 0.00 | 28 | 1009.3 |
| 20260505215942 | 26 | 347 | 6.4 | 20.9 | 0.00 | 0.00 | 0.00 | 29 | 1009.3 |
| 20260505215828 | 26 | 4 | 4.8 | 20.9 | 0.00 | 0.00 | 0.00 | 29 | 1009.3 |
| 20260505215740 | 26 | 52 | 4.8 | 20.9 | 0.00 | 0.00 | 0.00 | 27 | 1009.3 |
| 20260505215625 | 26 | 11 | 3.2 | 20.9 | 0.00 | 0.00 | 0.00 | 27 | 1009.3 |
| 20260505215527 | 26 | 27 | 4.8 | 20.9 | 0.00 | 0.00 | 0.00 | 27 | 1009.4 |
| 20260505215453 | 26 | 30 | 6.4 | 20.9 | 0.00 | 0.00 | 0.00 | 27 | 1009.4 |
| 20260505215313 | 26 | 37 | 9.7 | 20.9 | 0.00 | 0.00 | 0.00 | 27 | 1009.4 |
| 20260505215233 | 26 | 12 | 8.0 | 20.9 | 0.00 | 0.00 | 0.00 | 28 | 1009.3 |
| 20260505215117 | 26 | 48 | 6.4 | 16.1 | 0.00 | 0.00 | 0.00 | 28 | 1009.3 |
| 20260505215018 | 26 | 330 | 6.4 | 16.1 | 0.00 | 0.00 | 0.00 | 29 | 1009.3 |
| 20260505214924 | 26 | 339 | 8.0 | 16.1 | 0.00 | 0.00 | 0.00 | 28 | 1009.4 |
| 20260505214810 | 26 | 301 | 8.0 | 16.1 | 0.00 | 0.00 | 0.00 | 28 | 1009.5 |
| 20260505214720 | 26 | 291 | 8.0 | 16.1 | 0.00 | 0.00 | 0.00 | 29 | 1009.5 |
| 20260505214633 | 26 | 324 | 8.0 | 16.1 | 0.00 | 0.00 | 0.00 | 28 | 1009.5 |
| 20260505214507 | 26 | 295 | 8.0 | 16.1 | 0.00 | 0.00 | 0.00 | 27 | 1009.5 |
| 20260505214413 | 26 | 12 | 8.0 | 14.5 | 0.00 | 0.00 | 0.00 | 28 | 1009.5 |
| 20260505214346 | 26 | 359 | 6.4 | 14.5 | 0.00 | 0.00 | 0.00 | 29 | 1009.6 |
| 20260505214210 | 26 | 344 | 4.8 | 9.7 | 0.00 | 0.00 | 0.00 | 28 | 1009.5 |
| 20260505214116 | 26 | 354 | 4.8 | 9.7 | 0.00 | 0.00 | 0.00 | 27 | 1009.4 |
| 20260505214031 | 26 | 343 | 4.8 | 16.1 | 0.00 | 0.00 | 0.00 | 26 | 1009.5 |
| 20260505213943 | 26 | 10 | 4.8 | 16.1 | 0.00 | 0.00 | 0.00 | 27 | 1009.5 |
| 20260505213818 | 26 | 8 | 6.4 | 16.1 | 0.00 | 0.00 | 0.00 | 27 | 1009.6 |
| 20260505213713 | 26 | 8 | 4.8 | 16.1 | 0.00 | 0.00 | 0.00 | 27 | 1009.7 |
| 20260505213625 | 26 | 349 | 4.8 | 16.1 | 0.00 | 0.00 | 0.00 | 28 | 1009.6 |
| 20260505213519 | 26 | 10 | 6.4 | 16.1 | 0.00 | 0.00 | 0.00 | 28 | 1009.6 |
| 20260505213408 | 26 | 359 | 8.0 | 16.1 | 0.00 | 0.00 | 0.00 | 28 | 1009.6 |
| 20260505213320 | 26 | 337 | 8.0 | 16.1 | 0.00 | 0.00 | 0.00 | 28 | 1009.6 |
| 20260505213237 | 26 | 346 | 8.0 | 16.1 | 0.00 | 0.00 | 0.00 | 28 | 1009.6 |
| 20260505213124 | 26 | 62 | 8.0 | 14.5 | 0.00 | 0.00 | 0.00 | 27 | 1009.6 |
| 20260505213046 | 26 | 8 | 8.0 | 14.5 | 0.00 | 0.00 | 0.00 | 27 | 1009.7 |
| 20260505212930 | 26 | 354 | 8.0 | 14.5 | 0.00 | 0.00 | 0.00 | 26 | 1009.7 |
| 20260505212820 | 26 | 354 | 8.0 | 14.5 | 0.00 | 0.00 | 0.00 | 27 | 1009.7 |
| 20260505212705 | 26 | 346 | 8.0 | 14.5 | 0.00 | 0.00 | 0.00 | 28 | 1009.7 |
| 20260505212650 | 26 | 339 | 8.0 | 14.5 | 0.00 | 0.00 | 0.00 | 28 | 1009.8 |
| 20260505212524 | 26 | 343 | 9.7 | 14.5 | 0.00 | 0.00 | 0.00 | 27 | 1009.7 |
| 20260505212429 | 26 | 337 | 9.7 | 14.5 | 0.00 | 0.00 | 0.00 | 27 | 1009.7 |
| 20260505212321 | 26 | 339 | 9.7 | 14.5 | 0.00 | 0.00 | 0.00 | 28 | 1009.8 |
| 20260505212211 | 26 | 328 | 9.7 | 14.5 | 0.00 | 0.00 | 0.00 | 28 | 1009.8 |
| 20260505212126 | 26 | 354 | 8.0 | 14.5 | 0.00 | 0.00 | 0.00 | 29 | 1009.7 |
| 20260505212028 | 26 | 312 | 4.8 | 12.9 | 0.00 | 0.00 | 0.00 | 28 | 1009.8 |
| 20260505211905 | 26 | 335 | 3.2 | 14.5 | 0.00 | 0.00 | 0.00 | 26 | 1009.8 |
| 20260505211831 | 26 | 359 | 4.8 | 14.5 | 0.00 | 0.00 | 0.00 | 27 | 1009.8 |
| 20260505211707 | 26 | 354 | 4.8 | 14.5 | 0.00 | 0.00 | 0.00 | 28 | 1009.9 |
| 20260505211634 | 26 | 50 | 4.8 | 14.5 | 0.00 | 0.00 | 0.00 | 27 | 1009.8 |
| 20260505211528 | 26 | 315 | 4.8 | 16.1 | 0.00 | 0.00 | 0.00 | 27 | 1009.8 |
| 20260505211432 | 26 | 328 | 4.8 | 16.1 | 0.00 | 0.00 | 0.00 | 27 | 1009.9 |
| 20260505211317 | 26 | 354 | 4.8 | 16.1 | 0.00 | 0.00 | 0.00 | 27 | 1009.9 |
| 20260505211212 | 26 | 347 | 6.4 | 16.1 | 0.00 | 0.00 | 0.00 | 27 | 1010.0 |
| 20260505211145 | 26 | 346 | 8.0 | 16.1 | 0.00 | 0.00 | 0.00 | 26 | 1010.0 |
| 20260505211014 | 26 | 354 | 6.4 | 16.1 | 0.00 | 0.00 | 0.00 | 27 | 1009.9 |
| 20260505210919 | 26 | 354 | 6.4 | 16.1 | 0.00 | 0.00 | 0.00 | 27 | 1009.9 |
| 20260505210832 | 26 | 4 | 6.4 | 16.1 | 0.00 | 0.00 | 0.00 | 28 | 1009.9 |
| 20260505210707 | 26 | 359 | 4.8 | 12.9 | 0.00 | 0.00 | 0.00 | 28 | 1009.9 |
| 20260505210619 | 26 | 50 | 4.8 | 12.9 | 0.00 | 0.00 | 0.00 | 27 | 1009.9 |
| 20260505210513 | 26 | 57 | 6.4 | 14.5 | 0.00 | 0.00 | 0.00 | 27 | 1009.9 |
| 20260505210423 | 26 | 276 | 8.0 | 14.5 | 0.00 | 0.00 | 0.00 | 28 | 1010.0 |
| 20260505210309 | 26 | 347 | 6.4 | 14.5 | 0.00 | 0.00 | 0.00 | 28 | 1010.0 |
| 20260505210232 | 25 | 4 | 6.4 | 14.5 | 0.00 | 0.00 | 0.00 | 28 | 1010.0 |
| 20260505210143 | 25 | 354 | 4.8 | 14.5 | 0.00 | 0.00 | 0.00 | 28 | 1010.0 |
| 20260505210037 | 25 | 343 | 4.8 | 14.5 | 0.00 | 0.00 | 0.00 | 28 | 1010.0 |
| 20260505205922 | 25 | 4 | 4.8 | 14.5 | 0.00 | 0.00 | 0.00 | 29 | 1010.1 |
| 20260505205812 | 25 | 4 | 4.8 | 14.5 | 0.00 | 0.00 | 0.00 | 28 | 1010.1 |
| 20260505205708 | 25 | 354 | 4.8 | 16.1 | 0.00 | 0.00 | 0.00 | 28 | 1010.1 |
| 20260505205618 | 25 | 17 | 4.8 | 16.1 | 0.00 | 0.00 | 0.00 | 29 | 1010.1 |
| 20260505205541 | 25 | 359 | 4.8 | 16.1 | 0.00 | 0.00 | 0.00 | 28 | 1010.1 |
| 20260505205424 | 25 | 4 | 6.4 | 16.1 | 0.00 | 0.00 | 0.00 | 31 | 1010.1 |
| 20260505205310 | 25 | 28 | 4.8 | 16.1 | 0.00 | 0.00 | 0.00 | 32 | 1010.0 |
| 20260505205210 | 25 | 335 | 3.2 | 16.1 | 0.00 | 0.00 | 0.00 | 30 | 1010.1 |
| 20260505205143 | 25 | 332 | 4.8 | 16.1 | 0.00 | 0.00 | 0.00 | 30 | 1010.1 |
| 20260505205044 | 25 | 46 | 9.7 | 16.1 | 0.00 | 0.00 | 0.00 | 31 | 1010.0 |
| 20260505204928 | 25 | 29 | 11.3 | 16.1 | 0.00 | 0.00 | 0.00 | 31 | 1010.1 |
| 20260505204840 | 25 | 50 | 9.7 | 16.1 | 0.00 | 0.00 | 0.00 | 34 | 1010.0 |
| 20260505204736 | 25 | 47 | 4.8 | 14.5 | 0.00 | 0.00 | 0.00 | 33 | 1010.1 |
| 20260505204626 | 25 | 45 | 4.8 | 14.5 | 0.00 | 0.00 | 0.00 | 31 | 1010.0 |
| 20260505204518 | 25 | 246 | 4.8 | 14.5 | 0.00 | 0.00 | 0.00 | 30 | 1010.1 |
| 20260505204455 | 25 | 345 | 8.0 | 14.5 | 0.00 | 0.00 | 0.00 | 31 | 1010.1 |
| 20260505204310 | 25 | 58 | 6.4 | 14.5 | 0.00 | 0.00 | 0.00 | 30 | 1010.1 |
| 20260505204227 | 25 | 44 | 3.2 | 14.5 | 0.00 | 0.00 | 0.00 | 32 | 1010.1 |
| 20260505204117 | 25 | 23 | 3.2 | 14.5 | 0.00 | 0.00 | 0.00 | 33 | 1010.1 |
| 20260505204018 | 25 | 24 | 8.0 | 14.5 | 0.00 | 0.00 | 0.00 | 34 | 1010.1 |
| 20260505203914 | 25 | 33 | 9.7 | 14.5 | 0.00 | 0.00 | 0.00 | 34 | 1010.1 |
| 20260505203820 | 25 | 45 | 6.4 | 12.9 | 0.00 | 0.00 | 0.00 | 32 | 1010.1 |
| 20260505203710 | 25 | 24 | 4.8 | 9.7 | 0.00 | 0.00 | 0.00 | 33 | 1010.1 |
| 20260505203633 | 25 | 33 | 3.2 | 12.9 | 0.00 | 0.00 | 0.00 | 34 | 1010.1 |
| 20260505203527 | 25 | 69 | 3.2 | 12.9 | 0.00 | 0.00 | 0.00 | 33 | 1010.1 |
| 20260505203419 | 25 | 46 | 3.2 | 12.9 | 0.00 | 0.00 | 0.00 | 32 | 1010.2 |
| 20260505203305 | 25 | 359 | 3.2 | 12.9 | 0.00 | 0.00 | 0.00 | 33 | 1010.2 |
| 20260505203204 | 25 | 59 | 3.2 | 12.9 | 0.00 | 0.00 | 0.00 | 33 | 1010.2 |
| 20260505203138 | 25 | 12 | 4.8 | 12.9 | 0.00 | 0.00 | 0.00 | 31 | 1010.1 |
| 20260505203011 | 25 | 41 | 6.4 | 12.9 | 0.00 | 0.00 | 0.00 | 31 | 1010.2 |
| 20260505202917 | 25 | 18 | 6.4 | 12.9 | 0.00 | 0.00 | 0.00 | 31 | 1010.1 |
| 20260505202830 | 25 | 359 | 4.8 | 12.9 | 0.00 | 0.00 | 0.00 | 33 | 1010.2 |
| 20260505202716 | 25 | 342 | 6.4 | 12.9 | 0.00 | 0.00 | 0.00 | 34 | 1010.1 |
| 20260505202635 | 25 | 349 | 6.4 | 12.9 | 0.00 | 0.00 | 0.00 | 32 | 1010.1 |
| 20260505202529 | 25 | 201 | 3.2 | 12.9 | 0.00 | 0.00 | 0.00 | 33 | 1010.1 |
| 20260505202413 | 25 | 266 | 1.6 | 9.7 | 0.00 | 0.00 | 0.00 | 36 | 1010.1 |
| 20260505202319 | 25 | 29 | 3.2 | 9.7 | 0.00 | 0.00 | 0.00 | 36 | 1010.1 |
| 20260505202215 | 25 | 58 | 4.8 | 9.7 | 0.00 | 0.00 | 0.00 | 34 | 1010.1 |
| 20260505202117 | 25 | 34 | 4.8 | 9.7 | 0.00 | 0.00 | 0.00 | 32 | 1010.1 |
| 20260505202015 | 25 | 45 | 4.8 | 9.7 | 0.00 | 0.00 | 0.00 | 32 | 1010.2 |
| 20260505201921 | 25 | 42 | 3.2 | 8.0 | 0.00 | 0.00 | 0.00 | 30 | 1010.2 |
| 20260505201807 | 25 | 27 | 4.8 | 8.0 | 0.00 | 0.00 | 0.00 | 32 | 1010.2 |
| 20260505201710 | 25 | 324 | 3.2 | 8.0 | 0.00 | 0.00 | 0.00 | 31 | 1010.2 |
| 20260505201635 | 25 | 340 | 3.2 | 9.7 | 0.00 | 0.00 | 0.00 | 31 | 1010.2 |
| 20260505201513 | 25 | 335 | 3.2 | 9.7 | 0.00 | 0.00 | 0.00 | 32 | 1010.2 |
| 20260505201425 | 25 | 336 | 3.2 | 9.7 | 0.00 | 0.00 | 0.00 | 33 | 1010.2 |
| 20260505201310 | 25 | 216 | 3.2 | 9.7 | 0.00 | 0.00 | 0.00 | 30 | 1010.2 |
| 20260505201217 | 25 | 224 | 3.2 | 9.7 | 0.00 | 0.00 | 0.00 | 30 | 1010.2 |
| 20260505201130 | 25 | 333 | 3.2 | 9.7 | 0.00 | 0.00 | 0.00 | 32 | 1010.3 |
| 20260505201024 | 25 | 336 | 3.2 | 9.7 | 0.00 | 0.00 | 0.00 | 31 | 1010.3 |
| 20260505200914 | 25 | 341 | 3.2 | 9.7 | 0.00 | 0.00 | 0.00 | 30 | 1010.3 |
| 20260505200820 | 25 | 45 | 4.8 | 9.7 | 0.00 | 0.00 | 0.00 | 32 | 1010.3 |
| 20260505200705 | 25 | 4 | 3.2 | 8.0 | 0.00 | 0.00 | 0.00 | 33 | 1010.3 |
| 20260505200629 | 25 | 43 | 1.6 | 8.0 | 0.00 | 0.00 | 0.00 | 36 | 1010.3 |
| 20260505200514 | 25 | 283 | 3.2 | 8.0 | 0.00 | 0.00 | 0.00 | 33 | 1010.4 |
| 20260505200427 | 25 | 336 | 4.8 | 8.0 | 0.00 | 0.00 | 0.00 | 33 | 1010.3 |
| 20260505200317 | 25 | 354 | 4.8 | 8.0 | 0.00 | 0.00 | 0.00 | 34 | 1010.3 |
| 20260505200233 | 25 | 339 | 3.2 | 8.0 | 0.00 | 0.00 | 0.00 | 31 | 1010.3 |
| 20260505200126 | 25 | 18 | 1.6 | 8.0 | 0.00 | 0.00 | 0.00 | 31 | 1010.3 |
| 20260505200011 | 25 | 45 | 1.6 | 8.0 | 0.00 | 0.00 | 0.00 | 29 | 1010.3 |
| 20260505195944 | 25 | 40 | 1.6 | 8.0 | 0.00 | 0.00 | 0.00 | 32 | 1010.3 |
| 20260505195829 | 25 | 330 | 4.8 | 8.0 | 0.00 | 0.00 | 0.00 | 30 | 1010.3 |
| 20260505195726 | 25 | 4 | 4.8 | 8.0 | 0.00 | 0.00 | 0.00 | 32 | 1010.3 |
| 20260505195632 | 25 | 14 | 4.8 | 8.0 | 0.00 | 0.00 | 0.00 | 32 | 1010.3 |
| 20260505195507 | 25 | 345 | 4.8 | 8.0 | 0.00 | 0.00 | 0.00 | 31 | 1010.3 |
| 20260505195412 | 25 | 28 | 4.8 | 8.0 | 0.00 | 0.00 | 0.00 | 32 | 1010.3 |
| 20260505195325 | 25 | 326 | 3.2 | 14.5 | 0.00 | 0.00 | 0.00 | 35 | 1010.3 |
| 20260505195230 | 25 | 312 | 1.6 | 16.1 | 0.00 | 0.00 | 0.00 | 35 | 1010.3 |
| 20260505195150 | 24 | 312 | 1.6 | 16.1 | 0.00 | 0.00 | 0.00 | 34 | 1010.3 |
| 20260505195008 | 24 | 244 | 3.2 | 16.1 | 0.00 | 0.00 | 0.00 | 36 | 1010.3 |
| 20260505194913 | 24 | 285 | 3.2 | 16.1 | 0.00 | 0.00 | 0.00 | 36 | 1010.3 |
| 20260505194826 | 24 | 306 | 3.2 | 16.1 | 0.00 | 0.00 | 0.00 | 37 | 1010.3 |
| 20260505194712 | 24 | 344 | 4.8 | 16.1 | 0.00 | 0.00 | 0.00 | 35 | 1010.2 |
| 20260505194627 | 24 | 14 | 4.8 | 16.1 | 0.00 | 0.00 | 0.00 | 34 | 1010.2 |
| 20260505194505 | 24 | 4 | 6.4 | 16.1 | 0.00 | 0.00 | 0.00 | 36 | 1010.3 |
| 20260505194418 | 25 | 35 | 6.4 | 16.1 | 0.00 | 0.00 | 0.00 | 33 | 1010.2 |
| 20260505194316 | 25 | 60 | 6.4 | 14.5 | 0.00 | 0.00 | 0.00 | 38 | 1010.3 |
| 20260505194212 | 25 | 58 | 3.2 | 12.9 | 0.00 | 0.00 | 0.00 | 36 | 1010.3 |
| 20260505194145 | 24 | 73 | 1.6 | 8.0 | 0.00 | 0.00 | 0.00 | 36 | 1010.3 |
| 20260505194018 | 24 | 38 | 1.6 | 8.0 | 0.00 | 0.00 | 0.00 | 34 | 1010.2 |
| 20260505193935 | 24 | 18 | 3.2 | 8.0 | 0.00 | 0.00 | 0.00 | 34 | 1010.3 |
| 20260505193812 | 24 | 18 | 4.8 | 8.0 | 0.00 | 0.00 | 0.00 | 36 | 1010.3 |
| 20260505193708 | 24 | 359 | 4.8 | 6.4 | 0.00 | 0.00 | 0.00 | 39 | 1010.2 |
| 20260505193640 | 24 | 65 | 3.2 | 6.4 | 0.00 | 0.00 | 0.00 | 42 | 1010.2 |
| 20260505193511 | 24 | 4 | 3.2 | 8.0 | 0.00 | 0.00 | 0.00 | 37 | 1010.2 |
| 20260505193417 | 24 | 179 | 3.2 | 8.0 | 0.00 | 0.00 | 0.00 | 42 | 1010.2 |
| 20260505193345 | 24 | 181 | 3.2 | 8.0 | 0.00 | 0.00 | 0.00 | 41 | 1010.3 |
| 20260505193209 | 24 | 137 | 3.2 | 14.5 | 0.00 | 0.00 | 0.00 | 40 | 1010.3 |
| 20260505193126 | 24 | 129 | 3.2 | 14.5 | 0.00 | 0.00 | 0.00 | 37 | 1010.3 |
| 20260505193027 | 24 | 94 | 3.2 | 14.5 | 0.00 | 0.00 | 0.00 | 37 | 1010.3 |
| 20260505192912 | 24 | 50 | 3.2 | 14.5 | 0.00 | 0.00 | 0.00 | 35 | 1010.3 |
| 20260505192846 | 24 | 40 | 4.8 | 14.5 | 0.00 | 0.00 | 0.00 | 38 | 1010.3 |
| 20260505192714 | 24 | 44 | 3.2 | 14.5 | 0.00 | 0.00 | 0.00 | 35 | 1010.3 |
| 20260505192648 | 24 | 39 | 1.6 | 14.5 | 0.00 | 0.00 | 0.00 | 37 | 1010.3 |
| 20260505192530 | 24 | 190 | 1.6 | 14.5 | 0.00 | 0.00 | 0.00 | 36 | 1010.3 |
| 20260505192435 | 24 | 341 | 4.8 | 14.5 | 0.00 | 0.00 | 0.00 | 36 | 1010.3 |
| 20260505192320 | 24 | 336 | 3.2 | 14.5 | 0.00 | 0.00 | 0.00 | 37 | 1010.3 |
| 20260505192205 | 24 | 326 | 3.2 | 9.7 | 0.00 | 0.00 | 0.00 | 35 | 1010.3 |
| 20260505192127 | 24 | 339 | 4.8 | 9.7 | 0.00 | 0.00 | 0.00 | 36 | 1010.4 |
| 20260505192005 | 24 | 282 | 4.8 | 11.3 | 0.00 | 0.00 | 0.00 | 36 | 1010.3 |
| 20260505191911 | 24 | 359 | 4.8 | 9.7 | 0.00 | 0.00 | 0.00 | 36 | 1010.3 |
| 20260505191824 | 24 | 299 | 4.8 | 9.7 | 0.00 | 0.00 | 0.00 | 36 | 1010.3 |
| 20260505191709 | 24 | 343 | 6.4 | 9.7 | 0.00 | 0.00 | 0.00 | 37 | 1010.3 |
| 20260505191625 | 24 | 317 | 4.8 | 9.7 | 0.00 | 0.00 | 0.00 | 37 | 1010.4 |
| 20260505191530 | 24 | 314 | 4.8 | 9.7 | 0.00 | 0.00 | 0.00 | 34 | 1010.3 |
| 20260505191415 | 24 | 324 | 6.4 | 9.7 | 0.00 | 0.00 | 0.00 | 37 | 1010.3 |
| 20260505191341 | 24 | 297 | 4.8 | 9.7 | 0.00 | 0.00 | 0.00 | 38 | 1010.4 |
| 20260505191206 | 24 | 316 | 3.2 | 8.0 | 0.00 | 0.00 | 0.00 | 38 | 1010.4 |
| 20260505191150 | 24 | 285 | 1.6 | 8.0 | 0.00 | 0.00 | 0.00 | 38 | 1010.3 |
| 20260505191024 | 24 | 239 | 1.6 | 8.0 | 0.00 | 0.00 | 0.00 | 35 | 1010.4 |
| 20260505190912 | 24 | 31 | 1.6 | 8.0 | 0.00 | 0.00 | 0.00 | 34 | 1010.4 |
| 20260505190826 | 24 | 43 | 1.6 | 12.9 | 0.00 | 0.00 | 0.00 | 38 | 1010.5 |
| 20260505190711 | 24 | 173 | 0.0 | 12.9 | 0.00 | 0.00 | 0.00 | 39 | 1010.5 |
| 20260505190634 | 24 | 172 | 1.6 | 12.9 | 0.00 | 0.00 | 0.00 | 39 | 1010.4 |
| 20260505190520 | 24 | 173 | 4.8 | 12.9 | 0.00 | 0.00 | 0.00 | 34 | 1010.4 |
| 20260505190452 | 24 | 179 | 4.8 | 12.9 | 0.00 | 0.00 | 0.00 | 34 | 1010.6 |
| 20260505190337 | 24 | 339 | 4.8 | 12.9 | 0.00 | 0.00 | 0.00 | 36 | 1010.6 |
| 20260505190227 | 24 | 324 | 4.8 | 12.9 | 0.00 | 0.00 | 0.00 | 36 | 1010.6 |
| 20260505190128 | 24 | 318 | 6.4 | 12.9 | 0.00 | 0.00 | 0.00 | 35 | 1010.6 |
| 20260505190018 | 24 | 343 | 6.4 | 12.9 | 0.00 | 0.00 | 0.00 | 35 | 1010.6 |
| 20260505185922 | 24 | 321 | 4.8 | 12.9 | 0.00 | 0.00 | 0.00 | 36 | 1010.5 |
| 20260505185808 | 24 | 301 | 3.2 | 12.9 | 0.00 | 0.00 | 0.00 | 36 | 1010.5 |
| 20260505185713 | 24 | 339 | 3.2 | 12.9 | 0.00 | 0.00 | 0.00 | 35 | 1010.5 |
| 20260505185640 | 24 | 322 | 3.2 | 12.9 | 0.00 | 0.00 | 0.00 | 35 | 1010.5 |
| 20260505185515 | 24 | 330 | 4.8 | 12.9 | 0.00 | 0.00 | 0.00 | 33 | 1010.5 |
| 20260505185420 | 24 | 305 | 4.8 | 14.5 | 0.00 | 0.00 | 0.00 | 36 | 1010.5 |
| 20260505185306 | 24 | 279 | 4.8 | 14.5 | 0.00 | 0.00 | 0.00 | 35 | 1010.6 |
| 20260505185239 | 24 | 299 | 4.8 | 14.5 | 0.00 | 0.00 | 0.00 | 34 | 1010.6 |
| 20260505185133 | 24 | 316 | 4.8 | 14.5 | 0.00 | 0.00 | 0.00 | 35 | 1010.6 |
| 20260505185040 | 24 | 308 | 4.8 | 14.5 | 0.00 | 0.00 | 0.00 | 34 | 1010.6 |
| 20260505184924 | 24 | 313 | 6.4 | 14.5 | 0.00 | 0.00 | 0.00 | 36 | 1010.6 |
| 20260505184810 | 24 | 305 | 6.4 | 14.5 | 0.00 | 0.00 | 0.00 | 34 | 1010.5 |
| 20260505184727 | 24 | 314 | 8.0 | 14.5 | 0.00 | 0.00 | 0.00 | 34 | 1010.6 |
| 20260505184617 | 24 | 322 | 8.0 | 14.5 | 0.00 | 0.00 | 0.00 | 34 | 1010.6 |
| 20260505184511 | 24 | 312 | 6.4 | 14.5 | 0.00 | 0.00 | 0.00 | 34 | 1010.5 |
| 20260505184428 | 24 | 288 | 4.8 | 14.5 | 0.00 | 0.00 | 0.00 | 38 | 1010.5 |
| 20260505184314 | 24 | 317 | 1.6 | 14.5 | 0.00 | 0.00 | 0.00 | 38 | 1010.6 |
| 20260505184210 | 24 | 267 | 3.2 | 14.5 | 0.00 | 0.00 | 0.00 | 40 | 1010.5 |
| 20260505184122 | 23 | 321 | 4.8 | 14.5 | 0.00 | 0.00 | 0.00 | 39 | 1010.5 |
| 20260505184012 | 23 | 287 | 6.4 | 14.5 | 0.00 | 0.00 | 0.00 | 36 | 1010.6 |
| 20260505183945 | 23 | 324 | 6.4 | 14.5 | 0.00 | 0.00 | 0.00 | 38 | 1010.5 |
| 20260505183814 | 23 | 302 | 3.2 | 12.9 | 0.00 | 0.00 | 0.00 | 38 | 1010.5 |
| 20260505183709 | 23 | 179 | 3.2 | 11.3 | 0.00 | 0.00 | 0.00 | 38 | 1010.5 |
| 20260505183641 | 23 | 263 | 1.6 | 6.4 | 0.00 | 0.00 | 0.00 | 38 | 1010.5 |
| 20260505183516 | 23 | 297 | 1.6 | 6.4 | 0.00 | 0.00 | 0.00 | 39 | 1010.6 |
| 20260505183422 | 23 | 82 | 3.2 | 6.4 | 0.00 | 0.00 | 0.00 | 44 | 1010.4 |
| 20260505183311 | 23 | 87 | 3.2 | 6.4 | 0.00 | 0.00 | 0.00 | 39 | 1010.5 |
| 20260505183228 | 23 | 47 | 3.2 | 6.4 | 0.00 | 0.00 | 0.00 | 37 | 1010.4 |
| 20260505183118 | 23 | 97 | 1.6 | 6.4 | 0.00 | 0.00 | 0.00 | 41 | 1010.5 |
| 20260505183039 | 23 | 145 | 1.6 | 6.4 | 0.00 | 0.00 | 0.00 | 40 | 1010.5 |
| 20260505182945 | 23 | 249 | 1.6 | 6.4 | 0.00 | 0.00 | 0.00 | 38 | 1010.5 |
| 20260505182836 | 23 | 249 | 1.6 | 6.4 | 0.00 | 0.00 | 0.00 | 38 | 1010.6 |
| 20260505182710 | 23 | 233 | 1.6 | 6.4 | 0.00 | 0.00 | 0.00 | 42 | 1010.6 |
| 20260505182626 | 23 | 147 | 0.0 | 6.4 | 0.00 | 0.00 | 0.00 | 42 | 1010.6 |
| 20260505182541 | 23 | 122 | 1.6 | 6.4 | 0.00 | 0.00 | 0.00 | 40 | 1010.6 |
| 20260505182405 | 23 | 218 | 3.2 | 8.0 | 0.00 | 0.00 | 0.00 | 40 | 1010.6 |
| 20260505182338 | 23 | 242 | 3.2 | 8.0 | 0.00 | 0.00 | 0.00 | 39 | 1010.5 |
| 20260505182212 | 23 | 172 | 3.2 | 8.0 | 0.00 | 0.00 | 0.00 | 38 | 1010.6 |
| 20260505182124 | 23 | 151 | 1.6 | 6.4 | 0.00 | 0.00 | 0.00 | 40 | 1010.6 |
| 20260505182018 | 23 | 131 | 3.2 | 6.4 | 0.00 | 0.00 | 0.00 | 39 | 1010.7 |
| 20260505181928 | 23 | 226 | 3.2 | 6.4 | 0.00 | 0.00 | 0.00 | 42 | 1010.7 |
| 20260505181820 | 23 | 130 | 3.2 | 6.4 | 0.00 | 0.00 | 0.00 | 41 | 1010.6 |
| 20260505181736 | 23 | 183 | 3.2 | 6.4 | 0.00 | 0.00 | 0.00 | 38 | 1010.7 |
| 20260505181648 | 23 | 155 | 4.8 | 6.4 | 0.00 | 0.00 | 0.00 | 40 | 1010.7 |
| 20260505181521 | 23 | 162 | 3.2 | 6.4 | 0.00 | 0.00 | 0.00 | 39 | 1010.7 |
| 20260505181425 | 23 | 139 | 1.6 | 6.4 | 0.00 | 0.00 | 0.00 | 43 | 1010.7 |
| 20260505181314 | 23 | 255 | 3.2 | 6.4 | 0.00 | 0.00 | 0.00 | 39 | 1010.8 |
| 20260505181210 | 23 | 203 | 3.2 | 6.4 | 0.00 | 0.00 | 0.00 | 40 | 1010.7 |
| 20260505181121 | 23 | 237 | 1.6 | 6.4 | 0.00 | 0.00 | 0.00 | 38 | 1010.8 |
| 20260505181016 | 23 | 147 | 0.0 | 6.4 | 0.00 | 0.00 | 0.00 | 40 | 1010.7 |
| 20260505180921 | 23 | 295 | 0.0 | 6.4 | 0.00 | 0.00 | 0.00 | 42 | 1010.8 |
| 20260505180807 | 23 | 295 | 1.6 | 6.4 | 0.00 | 0.00 | 0.00 | 42 | 1010.8 |
| 20260505180734 | 23 | 295 | 1.6 | 6.4 | 0.00 | 0.00 | 0.00 | 41 | 1010.9 |
| 20260505180642 | 23 | 295 | 1.6 | 6.4 | 0.00 | 0.00 | 0.00 | 41 | 1010.9 |
| 20260505180516 | 23 | 290 | 1.6 | 9.7 | 0.00 | 0.00 | 0.00 | 42 | 1010.9 |
| 20260505180422 | 23 | 322 | 1.6 | 9.7 | 0.00 | 0.00 | 0.00 | 41 | 1011.0 |
| 20260505180308 | 23 | 253 | 3.2 | 9.7 | 0.00 | 0.00 | 0.00 | 41 | 1011.0 |
| 20260505180209 | 23 | 259 | 1.6 | 9.7 | 0.00 | 0.00 | 0.00 | 40 | 1011.0 |
| 20260505180116 | 23 | 320 | 1.6 | 9.7 | 0.00 | 0.00 | 0.00 | 41 | 1010.9 |
| 20260505180011 | 23 | 322 | 1.6 | 9.7 | 0.00 | 0.00 | 0.00 | 39 | 1011.0 |
| 20260505175916 | 23 | 322 | 4.8 | 9.7 | 0.00 | 0.00 | 0.00 | 40 | 1010.8 |
| 20260505175829 | 23 | 344 | 6.4 | 9.7 | 0.00 | 0.00 | 0.00 | 40 | 1011.0 |
| 20260505175715 | 23 | 295 | 3.2 | 11.3 | 0.00 | 0.00 | 0.00 | 40 | 1011.0 |
| 20260505175634 | 23 | 312 | 1.6 | 4.8 | 0.00 | 0.00 | 0.00 | 41 | 1011.0 |
| 20260505175509 | 23 | 308 | 3.2 | 4.8 | 0.00 | 0.00 | 0.00 | 43 | 1010.8 |
| 20260505175421 | 22 | 326 | 1.6 | 4.8 | 0.00 | 0.00 | 0.00 | 45 | 1010.8 |
| 20260505175324 | 22 | 326 | 1.6 | 4.8 | 0.00 | 0.00 | 0.00 | 43 | 1010.9 |
| 20260505175209 | 22 | 333 | 1.6 | 4.8 | 0.00 | 0.00 | 0.00 | 42 | 1010.8 |
| 20260505175132 | 22 | 52 | 1.6 | 4.8 | 0.00 | 0.00 | 0.00 | 40 | 1010.8 |
| 20260505175030 | 22 | 52 | 1.6 | 4.8 | 0.00 | 0.00 | 0.00 | 42 | 1010.8 |
| 20260505174914 | 22 | 52 | 3.2 | 4.8 | 0.00 | 0.00 | 0.00 | 43 | 1010.8 |
| 20260505174827 | 22 | 52 | 1.6 | 4.8 | 0.00 | 0.00 | 0.00 | 41 | 1010.7 |
| 20260505174715 | 22 | 35 | 1.6 | 4.8 | 0.00 | 0.00 | 0.00 | 43 | 1010.8 |
| 20260505174621 | 22 | 354 | 3.2 | 4.8 | 0.00 | 0.00 | 0.00 | 40 | 1010.8 |
| 20260505174523 | 22 | 13 | 1.6 | 4.8 | 0.00 | 0.00 | 0.00 | 41 | 1010.8 |
| 20260505174412 | 22 | 43 | 1.6 | 6.4 | 0.00 | 0.00 | 0.00 | 40 | 1010.8 |
| 20260505174318 | 22 | 246 | 3.2 | 6.4 | 0.00 | 0.00 | 0.00 | 39 | 1010.8 |
| 20260505174214 | 22 | 243 | 3.2 | 6.4 | 0.00 | 0.00 | 0.00 | 40 | 1010.8 |
| 20260505174125 | 22 | 230 | 1.6 | 6.4 | 0.00 | 0.00 | 0.00 | 41 | 1010.8 |
| 20260505174020 | 22 | 174 | 1.6 | 6.4 | 0.00 | 0.00 | 0.00 | 39 | 1010.8 |
| 20260505173928 | 22 | 77 | 3.2 | 6.4 | 0.00 | 0.00 | 0.00 | 38 | 1010.8 |
| 20260505173835 | 22 | 107 | 3.2 | 6.4 | 0.00 | 0.00 | 0.00 | 40 | 1010.8 |
| 20260505173710 | 22 | 60 | 4.8 | 6.4 | 0.00 | 0.00 | 0.00 | 39 | 1010.8 |
| 20260505173621 | 22 | 42 | 3.2 | 6.4 | 0.00 | 0.00 | 0.00 | 39 | 1010.8 |
| 20260505173515 | 22 | 192 | 1.6 | 6.4 | 0.00 | 0.00 | 0.00 | 40 | 1010.8 |
| 20260505173421 | 22 | 247 | 1.6 | 6.4 | 0.00 | 0.00 | 0.00 | 39 | 1010.8 |
| 20260505173310 | 22 | 329 | 3.2 | 6.4 | 0.00 | 0.00 | 0.00 | 38 | 1010.8 |
| 20260505173214 | 22 | 326 | 3.2 | 6.4 | 0.00 | 0.00 | 0.00 | 39 | 1010.8 |
| 20260505173117 | 22 | 314 | 3.2 | 6.4 | 0.00 | 0.00 | 0.00 | 41 | 1010.8 |
| 20260505173020 | 22 | 318 | 3.2 | 6.4 | 0.00 | 0.00 | 0.00 | 42 | 1010.8 |
| 20260505172937 | 22 | 314 | 3.2 | 6.4 | 0.00 | 0.00 | 0.00 | 45 | 1010.7 |
| 20260505172819 | 22 | 37 | 1.6 | 6.4 | 0.00 | 0.00 | 0.00 | 42 | 1010.8 |
| 20260505172709 | 22 | 13 | 1.6 | 6.4 | 0.00 | 0.00 | 0.00 | 39 | 1010.8 |
| 20260505172624 | 22 | 13 | 1.6 | 6.4 | 0.00 | 0.00 | 0.00 | 40 | 1010.8 |
| 20260505172526 | 22 | 308 | 3.2 | 6.4 | 0.00 | 0.00 | 0.00 | 39 | 1010.8 |
| 20260505172431 | 22 | 312 | 3.2 | 6.4 | 0.00 | 0.00 | 0.00 | 39 | 1010.8 |
| 20260505172317 | 22 | 210 | 3.2 | 8.0 | 0.00 | 0.00 | 0.00 | 41 | 1010.8 |
| 20260505172207 | 22 | 299 | 3.2 | 8.0 | 0.00 | 0.00 | 0.00 | 42 | 1010.8 |
| 20260505172151 | 22 | 299 | 3.2 | 8.0 | 0.00 | 0.00 | 0.00 | 42 | 1010.8 |
| 20260505172042 | 22 | 306 | 3.2 | 8.0 | 0.00 | 0.00 | 0.00 | 42 | 1010.8 |
| 20260505171934 | 22 | 349 | 3.2 | 8.0 | 0.00 | 0.00 | 0.00 | 42 | 1010.8 |
| 20260505171819 | 22 | 319 | 3.2 | 8.0 | 0.00 | 0.00 | 0.00 | 40 | 1010.8 |
| 20260505171714 | 22 | 51 | 3.2 | 8.0 | 0.00 | 0.00 | 0.00 | 40 | 1010.8 |
| 20260505171647 | 22 | 339 | 3.2 | 8.0 | 0.00 | 0.00 | 0.00 | 41 | 1010.8 |
| 20260505171520 | 22 | 324 | 3.2 | 8.0 | 0.00 | 0.00 | 0.00 | 40 | 1010.8 |
| 20260505171409 | 22 | 295 | 4.8 | 8.0 | 0.00 | 0.00 | 0.00 | 40 | 1010.8 |
| 20260505171322 | 22 | 297 | 4.8 | 8.0 | 0.00 | 0.00 | 0.00 | 40 | 1010.8 |
| 20260505171208 | 22 | 301 | 1.6 | 6.4 | 0.00 | 0.00 | 0.00 | 42 | 1010.8 |
| 20260505171145 | 22 | 312 | 0.0 | 6.4 | 0.00 | 0.00 | 0.00 | 42 | 1010.8 |
| 20260505171025 | 22 | 40 | 1.6 | 6.4 | 0.00 | 0.00 | 0.00 | 38 | 1010.7 |
| 20260505170915 | 22 | 39 | 3.2 | 6.4 | 0.00 | 0.00 | 0.00 | 38 | 1010.7 |
| 20260505170828 | 22 | 33 | 1.6 | 6.4 | 0.00 | 0.00 | 0.00 | 40 | 1010.7 |
| 20260505170725 | 22 | 341 | 3.2 | 6.4 | 0.00 | 0.00 | 0.00 | 40 | 1010.7 |
| 20260505170620 | 22 | 18 | 3.2 | 6.4 | 0.00 | 0.00 | 0.00 | 41 | 1010.7 |
| 20260505170542 | 22 | 44 | 3.2 | 6.4 | 0.00 | 0.00 | 0.00 | 40 | 1010.7 |
| 20260505170407 | 22 | 32 | 1.6 | 6.4 | 0.00 | 0.00 | 0.00 | 40 | 1010.7 |
| 20260505170312 | 22 | 27 | 1.6 | 6.4 | 0.00 | 0.00 | 0.00 | 39 | 1010.6 |
| 20260505170212 | 22 | 32 | 1.6 | 6.4 | 0.00 | 0.00 | 0.00 | 38 | 1010.6 |
| 20260505170124 | 22 | 37 | 1.6 | 6.4 | 0.00 | 0.00 | 0.00 | 39 | 1010.7 |
| 20260505170016 | 22 | 312 | 1.6 | 4.8 | 0.00 | 0.00 | 0.00 | 39 | 1010.7 |
| 20260505165929 | 22 | 282 | 3.2 | 4.8 | 0.00 | 0.00 | 0.00 | 40 | 1010.6 |
| 20260505165815 | 22 | 229 | 1.6 | 6.4 | 0.00 | 0.00 | 0.00 | 39 | 1010.6 |
| 20260505165736 | 22 | 236 | 1.6 | 6.4 | 0.00 | 0.00 | 0.00 | 40 | 1010.6 |
| 20260505165626 | 22 | 237 | 1.6 | 6.4 | 0.00 | 0.00 | 0.00 | 39 | 1010.6 |
| 20260505165522 | 22 | 249 | 1.6 | 6.4 | 0.00 | 0.00 | 0.00 | 41 | 1010.6 |
| 20260505165406 | 22 | 280 | 0.0 | 6.4 | 0.00 | 0.00 | 0.00 | 41 | 1010.6 |
| 20260505165339 | 22 | 271 | 0.0 | 6.4 | 0.00 | 0.00 | 0.00 | 42 | 1010.6 |
| 20260505165205 | 22 | 271 | 1.6 | 6.4 | 0.00 | 0.00 | 0.00 | 39 | 1010.6 |
| 20260505165120 | 22 | 271 | 3.2 | 6.4 | 0.00 | 0.00 | 0.00 | 38 | 1010.6 |
| 20260505165014 | 22 | 316 | 3.2 | 6.4 | 0.00 | 0.00 | 0.00 | 40 | 1010.7 |
| 20260505164926 | 22 | 218 | 3.2 | 6.4 | 0.00 | 0.00 | 0.00 | 39 | 1010.6 |
| 20260505164830 | 22 | 224 | 3.2 | 6.4 | 0.00 | 0.00 | 0.00 | 39 | 1010.6 |
| 20260505164716 | 22 | 300 | 3.2 | 6.4 | 0.00 | 0.00 | 0.00 | 39 | 1010.6 |
| 20260505164627 | 22 | 316 | 3.2 | 6.4 | 0.00 | 0.00 | 0.00 | 39 | 1010.7 |
| 20260505164549 | 22 | 310 | 3.2 | 6.4 | 0.00 | 0.00 | 0.00 | 40 | 1010.7 |
| 20260505164417 | 22 | 329 | 1.6 | 6.4 | 0.00 | 0.00 | 0.00 | 39 | 1010.6 |
| 20260505164323 | 22 | 312 | 1.6 | 6.4 | 0.00 | 0.00 | 0.00 | 41 | 1010.6 |
| 20260505164229 | 22 | 48 | 1.6 | 4.8 | 0.00 | 0.00 | 0.00 | 43 | 1010.6 |
| 20260505164130 | 22 | 48 | 1.6 | 4.8 | 0.00 | 0.00 | 0.00 | 41 | 1010.6 |
| 20260505164024 | 22 | 50 | 1.6 | 4.8 | 0.00 | 0.00 | 0.00 | 42 | 1010.6 |
| 20260505163916 | 22 | 306 | 3.2 | 4.8 | 0.00 | 0.00 | 0.00 | 42 | 1010.7 |
| 20260505163826 | 21 | 291 | 1.6 | 4.8 | 0.00 | 0.00 | 0.00 | 41 | 1010.7 |
| 20260505163710 | 21 | 287 | 0.0 | 4.8 | 0.00 | 0.00 | 0.00 | 42 | 1010.7 |
| 20260505163634 | 21 | 40 | 0.0 | 4.8 | 0.00 | 0.00 | 0.00 | 44 | 1010.7 |
| 20260505163508 | 21 | 39 | 1.6 | 4.8 | 0.00 | 0.00 | 0.00 | 42 | 1010.7 |
| 20260505163441 | 21 | 39 | 1.6 | 6.4 | 0.00 | 0.00 | 0.00 | 42 | 1010.7 |
| 20260505163306 | 21 | 348 | 1.6 | 6.4 | 0.00 | 0.00 | 0.00 | 42 | 1010.7 |
| 20260505163215 | 21 | 321 | 1.6 | 6.4 | 0.00 | 0.00 | 0.00 | 43 | 1010.7 |
| 20260505163200 | 21 | 321 | 1.6 | 6.4 | 0.00 | 0.00 | 0.00 | 44 | 1010.7 |
| 20260505163033 | 21 | 359 | 3.2 | 6.4 | 0.00 | 0.00 | 0.00 | 41 | 1010.7 |
| 20260505162918 | 21 | 319 | 1.6 | 6.4 | 0.00 | 0.00 | 0.00 | 41 | 1010.7 |
| 20260505162831 | 21 | 298 | 1.6 | 6.4 | 0.00 | 0.00 | 0.00 | 42 | 1010.7 |
| 20260505162708 | 21 | 316 | 3.2 | 6.4 | 0.00 | 0.00 | 0.00 | 41 | 1010.7 |
| 20260505162632 | 21 | 316 | 3.2 | 6.4 | 0.00 | 0.00 | 0.00 | 43 | 1010.6 |
| 20260505162511 | 21 | 320 | 1.6 | 6.4 | 0.00 | 0.00 | 0.00 | 42 | 1010.6 |
| 20260505162423 | 21 | 320 | 1.6 | 6.4 | 0.00 | 0.00 | 0.00 | 41 | 1010.7 |
| 20260505162309 | 21 | 300 | 3.2 | 6.4 | 0.00 | 0.00 | 0.00 | 42 | 1010.6 |
| 20260505162235 | 21 | 299 | 1.6 | 6.4 | 0.00 | 0.00 | 0.00 | 43 | 1010.6 |
| 20260505162138 | 21 | 294 | 0.0 | 6.4 | 0.00 | 0.00 | 0.00 | 44 | 1010.7 |
| 20260505162011 | 21 | 303 | 1.6 | 6.4 | 0.00 | 0.00 | 0.00 | 41 | 1010.7 |
| 20260505161927 | 21 | 304 | 1.6 | 6.4 | 0.00 | 0.00 | 0.00 | 42 | 1010.7 |
| 20260505161834 | 21 | 228 | 1.6 | 4.8 | 0.00 | 0.00 | 0.00 | 42 | 1010.6 |
| 20260505161708 | 21 | 228 | 1.6 | 4.8 | 0.00 | 0.00 | 0.00 | 46 | 1010.6 |
| 20260505161640 | 21 | 295 | 1.6 | 4.8 | 0.00 | 0.00 | 0.00 | 46 | 1010.6 |
| 20260505161553 | 21 | 294 | 1.6 | 6.4 | 0.00 | 0.00 | 0.00 | 44 | 1010.6 |
| 20260505161417 | 21 | 293 | 1.6 | 6.4 | 0.00 | 0.00 | 0.00 | 44 | 1010.6 |
| 20260505161327 | 21 | 250 | 1.6 | 6.4 | 0.00 | 0.00 | 0.00 | 45 | 1010.6 |
| 20260505161214 | 21 | 320 | 0.0 | 6.4 | 0.00 | 0.00 | 0.00 | 43 | 1010.6 |
| 20260505161147 | 21 | 295 | 0.0 | 6.4 | 0.00 | 0.00 | 0.00 | 43 | 1010.6 |
| 20260505161048 | 21 | 294 | 1.6 | 6.4 | 0.00 | 0.00 | 0.00 | 43 | 1010.6 |
| 20260505160912 | 21 | 294 | 3.2 | 6.4 | 0.00 | 0.00 | 0.00 | 43 | 1010.6 |
| 20260505160819 | 20 | 314 | 3.2 | 6.4 | 0.00 | 0.00 | 0.00 | 43 | 1010.5 |
| 20260505160707 | 20 | 288 | 1.6 | 6.4 | 0.00 | 0.00 | 0.00 | 44 | 1010.5 |
| 20260505160629 | 20 | 274 | 1.6 | 6.4 | 0.00 | 0.00 | 0.00 | 45 | 1010.6 |
| 20260505160524 | 20 | 217 | 1.6 | 6.4 | 0.00 | 0.00 | 0.00 | 42 | 1010.5 |
| 20260505160409 | 20 | 217 | 3.2 | 6.4 | 0.00 | 0.00 | 0.00 | 42 | 1010.5 |
| 20260505160322 | 20 | 217 | 3.2 | 6.4 | 0.00 | 0.00 | 0.00 | 45 | 1010.5 |
| 20260505160207 | 20 | 318 | 1.6 | 6.4 | 0.00 | 0.00 | 0.00 | 45 | 1010.5 |
| 20260505160144 | 20 | 313 | 1.6 | 6.4 | 0.00 | 0.00 | 0.00 | 43 | 1010.5 |
| 20260505153320 | 20 | 284 | 1.6 | 4.8 | 0.00 | 0.00 | 0.00 | 45 | 1010.4 |
| 20260505153206 | 20 | 284 | 3.2 | 4.8 | 0.00 | 0.00 | 0.00 | 44 | 1010.4 |
| 20260505153122 | 19 | 283 | 3.2 | 4.8 | 0.00 | 0.00 | 0.00 | 45 | 1010.4 |
| 20260505153023 | 19 | 301 | 1.6 | 4.8 | 0.00 | 0.00 | 0.00 | 46 | 1010.4 |
| 20260505152913 | 19 | 303 | 1.6 | 3.2 | 0.00 | 0.00 | 0.00 | 46 | 1010.4 |
| 20260505152818 | 19 | 311 | 1.6 | 3.2 | 0.00 | 0.00 | 0.00 | 46 | 1010.4 |
| 20260505152714 | 19 | 299 | 1.6 | 3.2 | 0.00 | 0.00 | 0.00 | 45 | 1010.4 |
| 20260505152625 | 19 | 310 | 1.6 | 4.8 | 0.00 | 0.00 | 0.00 | 44 | 1010.5 |
| 20260505152520 | 19 | 310 | 1.6 | 4.8 | 0.00 | 0.00 | 0.00 | 44 | 1010.5 |
| 20260505152409 | 19 | 314 | 0.0 | 4.8 | 0.00 | 0.00 | 0.00 | 44 | 1010.5 |
| 20260505152322 | 19 | 315 | 1.6 | 4.8 | 0.00 | 0.00 | 0.00 | 45 | 1010.5 |
| 20260505152207 | 19 | 314 | 1.6 | 4.8 | 0.00 | 0.00 | 0.00 | 46 | 1010.5 |
| 20260505152151 | 19 | 315 | 1.6 | 4.8 | 0.00 | 0.00 | 0.00 | 46 | 1010.5 |
| 20260505152024 | 19 | 315 | 1.6 | 4.8 | 0.00 | 0.00 | 0.00 | 45 | 1010.5 |
| 20260505151906 | 19 | 308 | 1.6 | 4.8 | 0.00 | 0.00 | 0.00 | 47 | 1010.5 |
| 20260505151819 | 19 | 324 | 3.2 | 4.8 | 0.00 | 0.00 | 0.00 | 47 | 1010.5 |
| 20260505151718 | 19 | 313 | 3.2 | 4.8 | 0.00 | 0.00 | 0.00 | 45 | 1010.5 |
| 20260505151642 | 19 | 324 | 3.2 | 4.8 | 0.00 | 0.00 | 0.00 | 45 | 1010.5 |
| 20260505151517 | 19 | 289 | 1.6 | 4.8 | 0.00 | 0.00 | 0.00 | 44 | 1010.5 |
| 20260505151423 | 19 | 289 | 1.6 | 4.8 | 0.00 | 0.00 | 0.00 | 45 | 1010.5 |
| 20260505151308 | 19 | 289 | 1.6 | 6.4 | 0.00 | 0.00 | 0.00 | 45 | 1010.5 |
| 20260505151207 | 19 | 289 | 1.6 | 6.4 | 0.00 | 0.00 | 0.00 | 45 | 1010.6 |
| 20260505151140 | 19 | 289 | 1.6 | 6.4 | 0.00 | 0.00 | 0.00 | 46 | 1010.5 |
| 20260505151020 | 19 | 289 | 1.6 | 6.4 | 0.00 | 0.00 | 0.00 | 45 | 1010.5 |
| 20260505150906 | 19 | 289 | 3.2 | 6.4 | 0.00 | 0.00 | 0.00 | 46 | 1010.6 |
| 20260505150812 | 19 | 288 | 3.2 | 6.4 | 0.00 | 0.00 | 0.00 | 45 | 1010.5 |
| 20260505150707 | 19 | 289 | 3.2 | 6.4 | 0.00 | 0.00 | 0.00 | 45 | 1010.5 |
| 20260505150622 | 19 | 299 | 3.2 | 6.4 | 0.00 | 0.00 | 0.00 | 45 | 1010.5 |
| 20260505150517 | 19 | 290 | 3.2 | 6.4 | 0.00 | 0.00 | 0.00 | 45 | 1010.5 |
| 20260505150423 | 19 | 287 | 3.2 | 6.4 | 0.00 | 0.00 | 0.00 | 46 | 1010.5 |
| 20260505150308 | 19 | 309 | 3.2 | 8.0 | 0.00 | 0.00 | 0.00 | 46 | 1010.4 |
| 20260505150213 | 19 | 296 | 1.6 | 8.0 | 0.00 | 0.00 | 0.00 | 46 | 1010.4 |
| 20260505150137 | 18 | 294 | 0.0 | 8.0 | 0.00 | 0.00 | 0.00 | 46 | 1010.4 |
| 20260505140641 | 17 | 307 | 0.0 | 3.2 | 0.00 | 0.00 | 0.00 | 52 | 1009.7 |
| 20260505140515 | 16 | 306 | 0.0 | 6.4 | 0.00 | 0.00 | 0.00 | 51 | 1009.6 |
| 20260505140421 | 16 | 307 | 0.0 | 6.4 | 0.00 | 0.00 | 0.00 | 52 | 1009.6 |
| 20260505140323 | 16 | 307 | 0.0 | 6.4 | 0.00 | 0.00 | 0.00 | 52 | 1009.6 |
| 20260505140213 | 16 | 307 | 1.6 | 6.4 | 0.00 | 0.00 | 0.00 | 52 | 1009.6 |
| 20260505140157 | 16 | 306 | 1.6 | 6.4 | 0.00 | 0.00 | 0.00 | 52 | 1009.6 |
| 20260505130208 | 13 | 153 | 0.0 | 1.6 | 0.00 | 0.00 | 0.00 | 59 | 1008.7 |
| 20260505130123 | 13 | 152 | 0.0 | 1.6 | 0.00 | 0.00 | 0.00 | 59 | 1008.7 |
| 20260505125015 | 13 | 152 | 0.0 | 8.0 | 0.00 | 0.00 | 0.00 | 59 | 1008.6 |
| 20260505124907 | 13 | 153 | 0.0 | 8.0 | 0.00 | 0.00 | 0.00 | 59 | 1008.6 |
| 20260505124813 | 13 | 153 | 0.0 | 8.0 | 0.00 | 0.00 | 0.00 | 59 | 1008.6 |
| 20260505124709 | 13 | 152 | 0.0 | 8.0 | 0.00 | 0.00 | 0.00 | 59 | 1008.6 |